DW6912 Weather Reports


Display with metric or nautical units.
time (UTC)temp
F
wind
direction
speed
MPH
gust
MPH
rain 1hr
in
rain 24hr
in
rain mn
in
humidity
%
barometer
mb
20260831150900 76 94 1.0 7.0 0.00 0.00 0.00 84 1019.0
20260831150700 76 109 3.0 7.0 0.00 0.00 0.00 84 1019.1
20260831150601 76 29 3.0 6.0 0.00 0.00 0.00 84 1019.1
20260831150503 76 73 1.0 6.0 0.00 0.00 0.00 83 1019.1
20260831150400 76 73 1.0 6.0 0.00 0.00 0.00 84 1019.1
20260831150300 76 63 3.0 6.0 0.00 0.00 0.00 84 1019.1
20260831150200 76 70 2.0 6.0 0.00 0.00 0.00 84 1019.0
20260831150005 76 64 1.0 6.0 0.00 0.00 0.00 84 1019.0
20260831145901 76 78 1.0 6.0 0.00 0.00 0.00 84 1019.0
20260831145800 76 79 3.0 6.0 0.00 0.00 0.00 84 1019.0
20260831145600 76 62 3.0 6.0 0.00 0.00 0.00 84 1018.9
20260831145505 76 78 3.0 6.0 0.00 0.00 0.00 84 1018.9
20260831145400 76 80 3.0 5.0 0.00 0.00 0.00 83 1018.9
20260831145300 76 53 2.0 7.0 0.00 0.00 0.00 83 1018.8
20260831145202 76 63 4.0 7.0 0.00 0.00 0.00 83 1018.8
20260831145100 76 213 0.0 7.0 0.00 0.00 0.00 83 1018.8
20260831145004 77 215 3.0 7.0 0.00 0.00 0.00 82 1018.7
20260831144901 77 90 1.0 7.0 0.00 0.00 0.00 82 1018.7
20260831144801 77 101 0.0 7.0 0.00 0.00 0.00 83 1018.8
20260831144504 76 137 1.0 7.0 0.00 0.00 0.00 83 1018.8
20260831144400 76 150 4.0 7.0 0.00 0.00 0.00 84 1018.9
20260831144300 76 245 8.0 8.0 0.00 0.00 0.00 86 1018.9
20260831144100 76 140 0.0 4.0 0.00 0.00 0.00 85 1018.9
20260831144005 76 140 1.0 4.0 0.00 0.00 0.00 85 1019.0
20260831143900 76 108 3.0 4.0 0.00 0.00 0.00 86 1019.0
20260831143800 76 132 0.0 4.0 0.00 0.00 0.00 86 1018.9
20260831143559 75 109 1.0 4.0 0.00 0.00 0.00 86 1019.0
20260831143400 75 105 3.0 4.0 0.00 0.00 0.00 86 1019.0
20260831143200 75 107 0.0 4.0 0.00 0.00 0.00 85 1019.0
20260831143102 75 107 0.0 4.0 0.00 0.00 0.00 85 1019.0
20260831143005 75 88 0.0 4.0 0.00 0.00 0.00 85 1019.1
20260831142901 75 88 0.0 4.0 0.00 0.00 0.00 85 1019.1
20260831142802 75 88 1.0 4.0 0.00 0.00 0.00 85 1019.1
20260831142700 75 76 3.0 4.0 0.00 0.00 0.00 85 1019.1
20260831142600 75 113 2.0 4.0 0.00 0.00 0.00 85 1019.2
20260831142401 75 77 0.0 4.0 0.00 0.00 0.00 84 1019.2
20260831142300 75 77 2.0 4.0 0.00 0.00 0.00 84 1019.2
20260831142202 75 77 1.0 6.0 0.00 0.00 0.00 84 1019.2
20260831142100 75 78 0.0 6.0 0.00 0.00 0.00 84 1019.3
20260831141900 75 78 0.0 6.0 0.00 0.00 0.00 84 1019.3
20260831141702 75 78 1.0 6.0 0.00 0.00 0.00 83 1019.3
20260831141504 75 123 1.0 6.0 0.00 0.00 0.00 83 1019.3
20260831141401 75 107 0.0 6.0 0.00 0.00 0.00 83 1019.3
20260831141301 75 82 0.0 6.0 0.00 0.00 0.00 83 1019.3
20260831141100 75 140 0.0 5.0 0.00 0.00 0.00 83 1019.3
20260831141004 75 140 1.0 5.0 0.00 0.00 0.00 83 1019.3
20260831140900 76 140 2.0 5.0 0.00 0.00 0.00 83 1019.4
20260831140801 76 112 0.0 5.0 0.00 0.00 0.00 83 1019.4
20260831140700 76 42 1.0 5.0 0.00 0.00 0.00 83 1019.4
20260831140504 76 85 1.0 4.0 0.00 0.00 0.00 83 1019.4
20260831140401 76 69 2.0 4.0 0.00 0.00 0.00 83 1019.4
20260831140201 75 55 2.0 4.0 0.00 0.00 0.00 85 1019.5
20260831140101 75 138 1.0 3.0 0.00 0.00 0.00 86 1019.4
20260831135859 75 122 1.0 3.0 0.00 0.00 0.00 87 1019.5
20260831135801 75 122 0.0 3.0 0.00 0.00 0.00 86 1019.5
20260831135700 75 122 1.0 3.0 0.00 0.00 0.00 85 1019.4
20260831135559 74 122 0.0 3.0 0.00 0.00 0.00 86 1019.4
20260831135503 74 122 0.0 3.0 0.00 0.00 0.00 85 1019.4
20260831135359 74 119 2.0 3.0 0.00 0.00 0.00 86 1019.3
20260831135259 74 119 0.0 3.0 0.00 0.00 0.00 85 1019.3
20260831135159 74 119 0.0 4.0 0.00 0.00 0.00 85 1019.3
20260831135059 74 119 1.0 4.0 0.00 0.00 0.00 85 1019.2
20260831135004 74 119 2.0 4.0 0.00 0.00 0.00 85 1019.3
20260831134859 74 119 0.0 4.0 0.00 0.00 0.00 85 1019.3
20260831134600 74 119 0.0 4.0 0.00 0.00 0.00 85 1019.5
20260831134359 74 104 2.0 4.0 0.00 0.00 0.00 86 1019.3
20260831134259 74 88 3.0 4.0 0.00 0.00 0.00 87 1019.4
20260831134200 74 46 1.0 3.0 0.00 0.00 0.00 86 1019.4
20260831134059 74 74 0.0 3.0 0.00 0.00 0.00 87 1019.4
20260831134005 74 61 1.0 3.0 0.00 0.00 0.00 86 1019.4
20260831133858 74 59 0.0 3.0 0.00 0.00 0.00 86 1019.4
20260831133759 74 57 2.0 3.0 0.00 0.00 0.00 86 1019.4
20260831133659 74 150 0.0 3.0 0.00 0.00 0.00 85 1019.5
20260831133559 74 150 1.0 3.0 0.00 0.00 0.00 85 1019.5
20260831133301 74 133 1.0 3.0 0.00 0.00 0.00 86 1019.4
20260831133159 74 135 0.0 3.0 0.00 0.00 0.00 87 1019.4
20260831133100 74 136 1.0 3.0 0.00 0.00 0.00 89 1019.4
20260831133004 74 125 2.0 2.0 0.00 0.00 0.00 90 1019.4
20260831132900 74 123 0.0 2.0 0.00 0.00 0.00 88 1019.4
20260831132800 74 123 0.0 2.0 0.00 0.00 0.00 89 1019.4
20260831132700 74 123 0.0 2.0 0.00 0.00 0.00 88 1019.5
20260831132600 74 124 0.0 2.0 0.00 0.00 0.00 88 1019.5
20260831132501 74 123 0.0 2.0 0.00 0.00 0.00 88 1019.5
20260831132359 74 124 0.0 2.0 0.00 0.00 0.00 90 1019.5
20260831132300 74 123 0.0 2.0 0.00 0.00 0.00 91 1019.5
20260831132200 74 123 0.0 2.0 0.00 0.00 0.00 91 1019.5
20260831132004 74 124 0.0 2.0 0.00 0.00 0.00 90 1019.4
20260831131800 73 123 2.0 2.0 0.00 0.00 0.00 89 1019.4
20260831131600 73 125 0.0 0.0 0.00 0.00 0.00 91 1019.4
20260831131359 73 125 0.0 1.0 0.00 0.00 0.00 92 1019.4
20260831131159 73 125 0.0 1.0 0.00 0.00 0.00 93 1019.4
20260831131059 73 125 0.0 1.0 0.00 0.00 0.00 93 1019.4
20260831131002 73 125 0.0 1.0 0.00 0.00 0.00 93 1019.4
20260831130903 73 125 0.0 1.0 0.00 0.00 0.00 93 1019.4
20260831130659 73 125 0.0 1.0 0.00 0.00 0.00 92 1019.3
20260831130601 73 125 0.0 1.0 0.00 0.00 0.00 92 1019.3
20260831130504 73 120 0.0 0.0 0.00 0.00 0.00 92 1019.3
20260831130359 73 120 0.0 0.0 0.00 0.00 0.00 93 1019.3
20260831130258 73 120 0.0 0.0 0.00 0.00 0.00 93 1019.3
20260831130200 73 120 0.0 0.0 0.00 0.00 0.00 93 1019.3
20260831130059 73 120 0.0 0.0 0.00 0.00 0.00 92 1019.3
20260831130003 73 120 0.0 0.0 0.00 0.00 0.00 93 1019.3
20260831125901 73 120 0.0 0.0 0.00 0.00 0.00 93 1019.3
20260831125759 73 120 0.0 0.0 0.00 0.00 0.00 93 1019.3
20260831125659 73 120 0.0 0.0 0.00 0.00 0.00 94 1019.3
20260831125559 72 120 0.0 0.0 0.00 0.00 0.00 94 1019.3
20260831125504 72 120 0.0 0.0 0.00 0.00 0.00 94 1019.2
20260831125400 72 120 0.0 0.0 0.00 0.00 0.00 94 1019.2
20260831125300 72 120 0.0 0.0 0.00 0.00 0.00 95 1019.2
20260831125159 72 120 0.0 0.0 0.00 0.00 0.00 95 1019.1
20260831125100 72 120 0.0 0.0 0.00 0.00 0.00 95 1019.2
20260831125002 72 120 0.0 0.0 0.00 0.00 0.00 94 1019.2
20260831124859 72 120 0.0 0.0 0.00 0.00 0.00 95 1019.2
20260831124759 72 120 0.0 0.0 0.00 0.00 0.00 95 1019.2
20260831124559 72 120 0.0 0.0 0.00 0.00 0.00 95 1019.2
20260831124504 72 120 0.0 0.0 0.00 0.00 0.00 95 1019.2
20260831124400 72 120 0.0 0.0 0.00 0.00 0.00 95 1019.1
20260831124300 72 120 0.0 0.0 0.00 0.00 0.00 96 1019.1
20260831124158 72 120 0.0 0.0 0.00 0.00 0.00 96 1019.1
20260831124059 71 120 0.0 0.0 0.00 0.00 0.00 96 1019.0
20260831124003 71 120 0.0 0.0 0.00 0.00 0.00 96 1019.0
20260831123859 71 120 0.0 0.0 0.00 0.00 0.00 96 1019.0
20260831123759 71 120 0.0 0.0 0.00 0.00 0.00 96 1019.0
20260831123658 71 120 0.0 0.0 0.00 0.00 0.00 96 1019.0
20260831123600 71 120 0.0 0.0 0.00 0.00 0.00 97 1019.0
20260831123501 71 120 0.0 0.0 0.00 0.00 0.00 97 1018.9
20260831123359 71 120 0.0 0.0 0.00 0.00 0.00 97 1018.9
20260831123259 71 120 0.0 0.0 0.00 0.00 0.00 97 1018.9
20260831123159 71 120 0.0 0.0 0.00 0.00 0.00 97 1018.9
20260831123003 71 120 0.0 0.0 0.00 0.00 0.00 97 1019.0
20260831122858 71 120 0.0 0.0 0.00 0.00 0.00 97 1019.0
20260831122801 71 120 0.0 0.0 0.00 0.00 0.00 97 1019.0
20260831122600 71 120 0.0 0.0 0.00 0.00 0.00 97 1019.1
20260831122503 71 120 0.0 0.0 0.00 0.00 0.00 97 1019.1
20260831122402 70 120 0.0 0.0 0.00 0.00 0.00 97 1019.1
20260831122259 70 120 0.0 0.0 0.00 0.00 0.00 97 1019.1
20260831122159 70 120 0.0 0.0 0.00 0.00 0.00 97 1019.0
20260831122100 70 120 0.0 0.0 0.00 0.00 0.00 97 1019.0
20260831122003 70 120 0.0 0.0 0.00 0.00 0.00 97 1019.0
20260831121859 70 120 0.0 0.0 0.00 0.00 0.00 97 1019.0
20260831121700 70 120 0.0 0.0 0.00 0.00 0.00 97 1019.1
20260831121559 70 120 0.0 0.0 0.00 0.00 0.00 97 1019.0
20260831121503 70 120 0.0 0.0 0.00 0.00 0.00 97 1019.0
20260831121359 70 120 0.0 0.0 0.00 0.00 0.00 97 1019.0
20260831121300 70 120 0.0 0.0 0.00 0.00 0.00 97 1019.0
20260831121158 70 120 0.0 0.0 0.00 0.00 0.00 97 1019.0
20260831120900 70 120 0.0 0.0 0.00 0.00 0.00 97 1019.0
20260831120759 69 120 0.0 0.0 0.00 0.00 0.00 97 1019.0
20260831120658 69 120 0.0 0.0 0.00 0.00 0.00 97 1018.9
20260831120559 69 120 0.0 0.0 0.00 0.00 0.00 97 1019.0
20260831120501 69 120 0.0 0.0 0.00 0.00 0.00 97 1019.0
20260831120400 69 120 0.0 0.0 0.00 0.00 0.00 97 1019.0
20260831120259 69 120 0.0 0.0 0.00 0.00 0.00 97 1019.0
20260831120159 69 120 0.0 0.0 0.00 0.00 0.00 97 1019.0
20260831120059 69 120 0.0 0.0 0.00 0.00 0.00 97 1019.0
20260831120004 69 120 0.0 0.0 0.00 0.00 0.00 97 1018.9
20260831115901 69 120 0.0 0.0 0.00 0.00 0.00 97 1018.9
20260831115800 69 120 0.0 0.0 0.00 0.00 0.00 97 1019.0
20260831115703 69 120 0.0 0.0 0.00 0.00 0.00 97 1018.9
20260831115603 69 120 0.0 0.0 0.00 0.00 0.00 97 1019.0
20260831115504 69 120 0.0 0.0 0.00 0.00 0.00 97 1019.0
20260831115300 69 120 0.0 0.0 0.00 0.00 0.00 97 1019.0
20260831115105 69 120 0.0 0.0 0.00 0.00 0.00 97 1019.0
20260831115004 69 120 0.0 0.0 0.00 0.00 0.00 97 1018.9
20260831114900 69 120 0.0 0.0 0.00 0.00 0.00 97 1018.9
20260831114701 69 120 0.0 0.0 0.00 0.00 0.00 97 1018.9
20260831114601 69 120 0.0 0.0 0.00 0.00 0.00 97 1018.9
20260831114505 69 120 0.0 0.0 0.00 0.00 0.00 97 1018.9
20260831114401 69 120 0.0 0.0 0.00 0.00 0.00 97 1018.9
20260831114305 69 120 0.0 0.0 0.00 0.00 0.00 97 1018.9
20260831114202 69 120 0.0 0.0 0.00 0.00 0.00 97 1018.9
20260831114101 69 120 0.0 0.0 0.00 0.00 0.00 97 1018.9
20260831114003 69 120 0.0 0.0 0.00 0.00 0.00 97 1018.9
20260831113900 69 120 0.0 0.0 0.00 0.00 0.00 97 1018.8
20260831113801 69 120 0.0 0.0 0.00 0.00 0.00 97 1018.8
20260831113700 68 120 0.0 0.0 0.00 0.00 0.00 97 1018.8
20260831113601 68 120 0.0 0.0 0.00 0.00 0.00 97 1018.8
20260831113503 68 120 0.0 0.0 0.00 0.00 0.00 97 1018.8
20260831113400 68 120 0.0 0.0 0.00 0.00 0.00 97 1018.8
20260831113300 68 120 0.0 0.0 0.00 0.00 0.00 97 1018.8
20260831113101 68 120 0.0 0.0 0.00 0.00 0.00 97 1018.8
20260831112900 68 120 0.0 0.0 0.00 0.00 0.00 97 1018.8
20260831112800 68 120 0.0 0.0 0.00 0.00 0.00 97 1018.8
20260831112600 68 120 0.0 0.0 0.00 0.00 0.00 97 1018.8
20260831112503 68 120 0.0 0.0 0.00 0.00 0.00 97 1018.8
20260831112401 68 120 0.0 0.0 0.00 0.00 0.00 97 1018.8
20260831112201 68 120 0.0 0.0 0.00 0.00 0.00 97 1018.8
20260831112005 68 120 0.0 0.0 0.00 0.00 0.00 97 1018.8
20260831111901 68 120 0.0 0.0 0.00 0.00 0.00 97 1018.8
20260831111800 68 120 0.0 0.0 0.00 0.00 0.00 97 1018.8
20260831111701 68 120 0.0 0.0 0.00 0.00 0.00 97 1018.8
20260831111600 68 120 0.0 0.0 0.00 0.00 0.00 97 1018.8
20260831111401 68 120 0.0 0.0 0.00 0.00 0.00 97 1018.9
20260831111300 68 120 0.0 0.0 0.00 0.00 0.00 97 1018.8
20260831111200 68 120 0.0 0.0 0.00 0.00 0.00 97 1018.8
20260831111059 68 120 0.0 0.0 0.00 0.00 0.00 97 1018.8
20260831111003 68 120 0.0 0.0 0.00 0.00 0.00 97 1018.7
20260831110902 68 120 0.0 0.0 0.00 0.00 0.00 97 1018.7
20260831110700 68 120 0.0 0.0 0.00 0.00 0.00 97 1018.7
20260831110559 68 120 0.0 0.0 0.00 0.00 0.00 97 1018.7
20260831110504 68 120 0.0 0.0 0.00 0.00 0.00 97 1018.7
20260831110401 68 120 0.0 0.0 0.00 0.00 0.00 97 1018.6
20260831110301 68 120 0.0 0.0 0.00 0.00 0.00 97 1018.6
20260831110201 68 120 0.0 0.0 0.00 0.00 0.00 97 1018.5
20260831110100 68 120 0.0 0.0 0.00 0.00 0.00 97 1018.5
20260831110004 68 120 0.0 0.0 0.00 0.00 0.00 97 1018.5
20260831105901 68 120 0.0 0.0 0.00 0.00 0.00 97 1018.5
20260831105800 68 120 0.0 0.0 0.00 0.00 0.00 97 1018.4
20260831105559 68 120 0.0 0.0 0.00 0.00 0.00 97 1018.4
20260831105301 68 120 0.0 0.0 0.00 0.00 0.00 97 1018.3
20260831105200 68 120 0.0 0.0 0.00 0.00 0.00 97 1018.3
20260831105059 68 120 0.0 0.0 0.00 0.00 0.00 97 1018.2
20260831105003 68 120 0.0 0.0 0.00 0.00 0.00 97 1018.2
20260831104859 68 120 0.0 0.0 0.00 0.00 0.00 97 1018.2
20260831104759 68 120 0.0 0.0 0.00 0.00 0.00 97 1018.1
20260831104700 68 120 0.0 0.0 0.00 0.00 0.00 97 1018.2
20260831104600 68 120 0.0 0.0 0.00 0.00 0.00 97 1018.2
20260831104259 68 120 0.0 0.0 0.00 0.00 0.00 97 1018.1
20260831104100 68 120 0.0 0.0 0.00 0.00 0.00 97 1018.0
20260831104000 68 120 0.0 0.0 0.00 0.00 0.00 97 1018.1
20260831103857 68 120 0.0 0.0 0.00 0.00 0.00 97 1018.1
20260831103801 68 120 0.0 0.0 0.00 0.00 0.00 97 1018.1
20260831103658 68 120 0.0 0.0 0.00 0.00 0.00 97 1018.1
20260831103559 68 120 0.0 0.0 0.00 0.00 0.00 97 1018.1
20260831103400 68 120 0.0 0.0 0.00 0.00 0.00 97 1018.1
20260831103258 68 120 0.0 0.0 0.00 0.00 0.00 97 1018.1
20260831103158 68 120 0.0 0.0 0.00 0.00 0.00 97 1018.1
20260831103059 68 120 0.0 0.0 0.00 0.00 0.00 97 1018.1
20260831103001 68 120 0.0 0.0 0.00 0.00 0.00 97 1018.1
20260831102900 68 120 0.0 0.0 0.00 0.00 0.00 97 1018.1
20260831102759 68 120 0.0 0.0 0.00 0.00 0.00 97 1018.1
20260831102659 68 120 0.0 0.0 0.00 0.00 0.00 97 1018.1
20260831102600 68 120 0.0 0.0 0.00 0.00 0.00 97 1018.1
20260831102503 68 120 0.0 0.0 0.00 0.00 0.00 97 1018.1
20260831102359 68 120 0.0 0.0 0.00 0.00 0.00 97 1018.1
20260831102259 68 120 0.0 0.0 0.00 0.00 0.00 97 1018.1
20260831102200 68 120 0.0 0.0 0.00 0.00 0.00 97 1018.1
20260831102059 68 120 0.0 0.0 0.00 0.00 0.00 97 1018.0
20260831102001 68 120 0.0 0.0 0.00 0.00 0.00 97 1018.0
20260831101859 68 120 0.0 0.0 0.00 0.00 0.00 97 1018.0
20260831101759 68 120 0.0 0.0 0.00 0.00 0.00 97 1018.0
20260831101559 68 120 0.0 0.0 0.00 0.00 0.00 97 1017.9
20260831101359 68 120 0.0 0.0 0.00 0.00 0.00 97 1017.7
20260831101259 68 120 0.0 0.0 0.00 0.00 0.00 97 1017.7
20260831101200 68 120 0.0 0.0 0.00 0.00 0.00 97 1017.8
20260831101059 68 120 0.0 0.0 0.00 0.00 0.00 97 1017.8
20260831101000 68 120 0.0 0.0 0.00 0.00 0.00 97 1017.9
20260831100801 68 120 0.0 0.0 0.00 0.00 0.00 97 1018.0
20260831100659 68 120 0.0 0.0 0.00 0.00 0.00 97 1018.0
20260831100559 68 120 0.0 0.0 0.00 0.00 0.00 97 1018.0
20260831100504 68 120 0.0 0.0 0.00 0.00 0.00 97 1018.0
20260831100259 68 120 0.0 0.0 0.00 0.00 0.00 97 1018.0
20260831100200 68 120 0.0 0.0 0.00 0.00 0.00 97 1018.0
20260831100100 68 120 0.0 0.0 0.00 0.00 0.00 97 1018.0
20260831100005 68 120 0.0 0.0 0.00 0.00 0.00 97 1017.9
20260831095900 68 120 0.0 0.0 0.00 0.00 0.00 97 1017.9
20260831095802 68 120 0.0 0.0 0.00 0.00 0.00 97 1017.9
20260831095601 68 120 0.0 0.0 0.00 0.00 0.00 97 1017.8
20260831095359 68 120 0.0 0.0 0.00 0.00 0.00 97 1018.0
20260831095300 68 120 0.0 0.0 0.00 0.00 0.00 97 1018.0
20260831095102 68 120 0.0 0.0 0.00 0.00 0.00 97 1018.0
20260831095004 68 120 0.0 0.0 0.00 0.00 0.00 97 1018.0
20260831094859 68 120 0.0 0.0 0.00 0.00 0.00 97 1018.0
20260831094800 68 120 0.0 0.0 0.00 0.00 0.00 97 1018.0
20260831094700 68 120 0.0 0.0 0.00 0.00 0.00 97 1018.0
20260831094504 68 120 0.0 0.0 0.00 0.00 0.00 97 1018.0
20260831094401 68 120 0.0 0.0 0.00 0.00 0.00 97 1018.0
20260831094259 68 120 0.0 0.0 0.00 0.00 0.00 97 1018.0
20260831094200 68 120 0.0 0.0 0.00 0.00 0.00 97 1018.0
20260831094100 68 120 0.0 0.0 0.00 0.00 0.00 97 1018.0
20260831094004 68 120 0.0 0.0 0.00 0.00 0.00 97 1018.0
20260831093901 68 120 0.0 0.0 0.00 0.00 0.00 97 1018.0
20260831093800 68 120 0.0 0.0 0.00 0.00 0.00 97 1018.0
20260831093700 68 120 0.0 0.0 0.00 0.00 0.00 97 1018.0
20260831093600 68 120 0.0 0.0 0.00 0.00 0.00 97 1018.0
20260831093502 68 120 0.0 0.0 0.00 0.00 0.00 97 1018.0
20260831093359 68 120 0.0 0.0 0.00 0.00 0.00 97 1018.0
20260831093301 68 120 0.0 0.0 0.00 0.00 0.00 97 1018.0
20260831093200 68 120 0.0 0.0 0.00 0.00 0.00 97 1018.0
20260831093059 68 120 0.0 0.0 0.00 0.00 0.00 97 1018.0
20260831093004 68 120 0.0 0.0 0.00 0.00 0.00 97 1018.0
20260831092900 68 120 0.0 0.0 0.00 0.00 0.00 97 1018.0
20260831092801 68 120 0.0 0.0 0.00 0.00 0.00 97 1017.9
20260831092700 68 120 0.0 0.0 0.00 0.00 0.00 97 1017.8
20260831092600 68 120 0.0 0.0 0.00 0.00 0.00 97 1017.8
20260831092504 68 120 0.0 0.0 0.00 0.00 0.00 97 1017.8
20260831092401 68 120 0.0 0.0 0.00 0.00 0.00 97 1017.8
20260831092300 68 120 0.0 0.0 0.00 0.00 0.00 97 1017.8
20260831092202 68 120 0.0 0.0 0.00 0.00 0.00 97 1017.8
20260831092005 68 120 0.0 0.0 0.00 0.00 0.00 97 1017.8
20260831091859 68 120 0.0 0.0 0.00 0.00 0.00 97 1017.8
20260831091759 68 120 0.0 0.0 0.00 0.00 0.00 97 1017.8
20260831091700 68 120 0.0 0.0 0.00 0.00 0.00 97 1017.7
20260831091602 68 120 0.0 0.0 0.00 0.00 0.00 97 1017.8
20260831091503 68 120 0.0 0.0 0.00 0.00 0.00 97 1017.8
20260831091300 68 120 0.0 0.0 0.00 0.00 0.00 97 1017.8
20260831091200 68 120 0.0 0.0 0.00 0.00 0.00 97 1017.7
20260831091100 68 120 0.0 0.0 0.00 0.00 0.00 97 1017.7
20260831091005 68 120 0.0 0.0 0.00 0.00 0.00 97 1017.7
20260831090901 68 120 0.0 0.0 0.00 0.00 0.00 97 1017.7
20260831090800 68 120 0.0 0.0 0.00 0.00 0.00 97 1017.7
20260831090700 68 120 0.0 0.0 0.00 0.00 0.00 97 1017.7
20260831090602 68 120 0.0 0.0 0.00 0.00 0.00 97 1017.7
20260831090504 68 120 0.0 0.0 0.00 0.00 0.00 97 1017.7
20260831090400 68 120 0.0 0.0 0.00 0.00 0.00 97 1017.7
20260831090300 68 120 0.0 0.0 0.00 0.00 0.00 97 1017.6
20260831090201 68 120 0.0 0.0 0.00 0.00 0.00 97 1017.6
20260831090100 68 120 0.0 0.0 0.00 0.00 0.00 97 1017.6
20260831090003 68 120 0.0 0.0 0.00 0.00 0.00 97 1017.6
20260831085900 68 120 0.0 0.0 0.00 0.00 0.00 97 1017.6
20260831085659 68 120 0.0 0.0 0.00 0.00 0.00 97 1017.6
20260831085559 68 120 0.0 0.0 0.00 0.00 0.00 97 1017.6
20260831085502 68 120 0.0 0.0 0.00 0.00 0.00 97 1017.6
20260831085359 68 120 0.0 0.0 0.00 0.00 0.00 97 1017.6
20260831085300 68 120 0.0 0.0 0.00 0.00 0.00 97 1017.6
20260831085159 68 120 0.0 0.0 0.00 0.00 0.00 97 1017.6
20260831085101 68 120 0.0 0.0 0.00 0.00 0.00 97 1017.6
20260831085004 68 120 0.0 0.0 0.00 0.00 0.00 97 1017.6
20260831084900 68 120 0.0 0.0 0.00 0.00 0.00 97 1017.6
20260831084759 68 120 0.0 0.0 0.00 0.00 0.00 97 1017.6
20260831084659 68 120 0.0 0.0 0.00 0.00 0.00 97 1017.5
20260831084559 68 120 0.0 0.0 0.00 0.00 0.00 97 1017.6
20260831084504 68 120 0.0 0.0 0.00 0.00 0.00 97 1017.5
20260831084400 68 120 0.0 0.0 0.00 0.00 0.00 97 1017.5
20260831084159 68 120 0.0 0.0 0.00 0.00 0.00 97 1017.5
20260831084100 68 120 0.0 0.0 0.00 0.00 0.00 97 1017.5
20260831084000 68 120 0.0 0.0 0.00 0.00 0.00 97 1017.5
20260831083900 68 120 0.0 0.0 0.00 0.00 0.00 97 1017.5
20260831083800 68 120 0.0 0.0 0.00 0.00 0.00 97 1017.5
20260831083659 68 120 0.0 0.0 0.00 0.00 0.00 97 1017.5
20260831083502 68 120 0.0 0.0 0.00 0.00 0.00 97 1017.5
20260831083400 68 120 0.0 2.0 0.00 0.00 0.00 97 1017.5
20260831083258 68 120 0.0 2.0 0.00 0.00 0.00 97 1017.5
20260831083200 68 120 0.0 2.0 0.00 0.00 0.00 97 1017.4
20260831083100 68 120 0.0 2.0 0.00 0.00 0.00 97 1017.4
20260831083000 68 120 0.0 2.0 0.00 0.00 0.00 97 1017.4
20260831082900 68 120 0.0 2.0 0.00 0.00 0.00 97 1017.4
20260831082759 68 120 0.0 2.0 0.00 0.00 0.00 97 1017.4
20260831082700 68 120 0.0 2.0 0.00 0.00 0.00 97 1017.4
20260831082559 69 120 0.0 2.0 0.00 0.00 0.00 97 1017.4
20260831082358 69 120 0.0 0.0 0.00 0.00 0.00 97 1017.4
20260831082259 69 120 0.0 0.0 0.00 0.00 0.00 97 1017.4
20260831082159 69 120 0.0 0.0 0.00 0.00 0.00 97 1017.4
20260831082001 69 120 0.0 0.0 0.00 0.00 0.00 97 1017.4
20260831081859 69 120 0.0 0.0 0.00 0.00 0.00 97 1017.4
20260831081800 69 120 0.0 0.0 0.00 0.00 0.00 97 1017.5
20260831081700 69 120 0.0 0.0 0.00 0.00 0.00 97 1017.5
20260831081559 69 120 0.0 0.0 0.00 0.00 0.00 97 1017.5
20260831081500 69 120 0.0 0.0 0.00 0.00 0.00 97 1017.4
20260831081358 69 120 0.0 0.0 0.00 0.00 0.00 97 1017.5
20260831081259 69 120 0.0 0.0 0.00 0.00 0.00 97 1017.4
20260831081159 69 120 0.0 0.0 0.00 0.00 0.00 96 1017.4
20260831081100 69 120 0.0 0.0 0.00 0.00 0.00 96 1017.4
20260831081001 69 120 0.0 0.0 0.00 0.00 0.00 96 1017.4
20260831080859 69 120 0.0 0.0 0.00 0.00 0.00 96 1017.4
20260831080800 69 120 0.0 0.0 0.00 0.00 0.00 96 1017.3
20260831080659 69 120 0.0 0.0 0.00 0.00 0.00 96 1017.4
20260831080501 69 120 0.0 0.0 0.00 0.00 0.00 96 1017.4
20260831080359 69 120 0.0 0.0 0.00 0.00 0.00 97 1017.4
20260831080259 69 120 0.0 0.0 0.00 0.00 0.00 97 1017.4
20260831080200 69 120 0.0 0.0 0.00 0.00 0.00 97 1017.4
20260831080059 69 120 0.0 0.0 0.00 0.00 0.00 96 1017.4
20260831080004 69 120 0.0 0.0 0.00 0.00 0.00 96 1017.3
20260831075900 69 120 0.0 0.0 0.00 0.00 0.00 96 1017.3
20260831075800 69 120 0.0 0.0 0.00 0.00 0.00 96 1017.3
20260831075700 69 120 0.0 0.0 0.00 0.00 0.00 96 1017.3
20260831075559 69 120 0.0 0.0 0.00 0.00 0.00 96 1017.2
20260831075503 69 120 0.0 0.0 0.00 0.00 0.00 96 1017.2
20260831075403 69 120 0.0 0.0 0.00 0.00 0.00 96 1017.3
20260831075300 69 120 0.0 0.0 0.00 0.00 0.00 96 1017.3
20260831075200 70 120 0.0 0.0 0.00 0.00 0.00 96 1017.3
20260831075101 70 120 0.0 0.0 0.00 0.00 0.00 96 1017.3
20260831074900 70 120 0.0 0.0 0.00 0.00 0.00 96 1017.4
20260831074700 70 120 0.0 0.0 0.00 0.00 0.00 96 1017.4
20260831074600 70 120 0.0 0.0 0.00 0.00 0.00 96 1017.4
20260831074502 70 120 0.0 0.0 0.00 0.00 0.00 96 1017.4
20260831074359 70 120 0.0 0.0 0.00 0.00 0.00 96 1017.4
20260831074259 70 120 0.0 0.0 0.00 0.00 0.00 96 1017.5
20260831074159 70 120 0.0 0.0 0.00 0.00 0.00 96 1017.5
20260831074059 70 120 0.0 0.0 0.00 0.00 0.00 96 1017.5
20260831074000 70 120 0.0 0.0 0.00 0.00 0.00 96 1017.5
20260831073901 70 120 0.0 0.0 0.00 0.00 0.00 96 1017.5
20260831073759 70 120 0.0 0.0 0.00 0.00 0.00 96 1017.5
20260831073700 70 120 0.0 0.0 0.00 0.00 0.00 96 1017.5
20260831073558 70 120 0.0 0.0 0.00 0.00 0.00 96 1017.5
20260831073503 70 120 0.0 0.0 0.00 0.00 0.00 96 1017.5
20260831073359 70 120 0.0 0.0 0.00 0.00 0.00 96 1017.5
20260831073200 70 120 0.0 0.0 0.00 0.00 0.00 95 1017.5
20260831073059 70 120 0.0 0.0 0.00 0.00 0.00 95 1017.5
20260831072900 70 120 0.0 0.0 0.00 0.00 0.00 95 1017.5
20260831072759 70 120 0.0 0.0 0.00 0.00 0.00 95 1017.4
20260831072700 70 120 0.0 0.0 0.00 0.00 0.00 95 1017.4
20260831072501 70 120 0.0 0.0 0.00 0.00 0.00 95 1017.5
20260831072400 70 120 0.0 0.0 0.00 0.00 0.00 95 1017.4
20260831072259 70 120 0.0 0.0 0.00 0.00 0.00 95 1017.5
20260831072201 70 120 0.0 0.0 0.00 0.00 0.00 95 1017.5
20260831072100 70 120 0.0 0.0 0.00 0.00 0.00 95 1017.5
20260831071859 71 120 0.0 0.0 0.00 0.00 0.00 95 1017.5
20260831071758 71 120 0.0 0.0 0.00 0.00 0.00 95 1017.5
20260831071700 71 120 0.0 0.0 0.00 0.00 0.00 95 1017.5
20260831071559 71 120 0.0 0.0 0.00 0.00 0.00 95 1017.5
20260831071500 71 120 0.0 0.0 0.00 0.00 0.00 95 1017.5
20260831071158 71 120 0.0 0.0 0.00 0.00 0.00 95 1017.6
20260831071100 71 120 0.0 0.0 0.00 0.00 0.00 95 1017.6
20260831071000 71 120 0.0 0.0 0.00 0.00 0.00 95 1017.6
20260831070800 71 120 0.0 0.0 0.00 0.00 0.00 94 1017.6
20260831070500 71 120 0.0 0.0 0.00 0.00 0.00 94 1017.6
20260831070401 71 120 0.0 0.0 0.00 0.00 0.00 94 1017.6
20260831070300 71 120 0.0 0.0 0.00 0.00 0.00 94 1017.7
20260831070200 71 120 0.0 0.0 0.00 0.00 0.00 94 1017.7
20260831070059 71 120 0.0 0.0 0.00 0.00 0.00 94 1017.7
20260831070004 71 120 0.0 0.0 0.00 0.00 0.00 94 1017.6
20260831065859 71 120 0.0 0.0 0.00 0.00 0.00 94 1017.6
20260831065800 71 120 0.0 0.0 0.00 0.00 0.00 94 1017.6
20260831065559 71 120 0.0 0.0 0.00 0.00 0.00 94 1017.5
20260831065501 71 120 0.0 0.0 0.00 0.00 0.00 94 1017.6
20260831065401 71 120 0.0 0.0 0.00 0.00 0.00 94 1017.6
20260831065259 71 120 0.0 0.0 0.00 0.00 0.00 94 1017.6
20260831065059 71 120 0.0 0.0 0.00 0.00 0.00 94 1017.6
20260831064901 71 120 0.0 0.0 0.00 0.00 0.00 94 1017.7
20260831064800 71 120 0.0 0.0 0.00 0.00 0.00 94 1017.7
20260831064559 71 120 0.0 0.0 0.00 0.00 0.00 93 1017.7
20260831064504 71 120 0.0 0.0 0.00 0.00 0.00 93 1017.7
20260831064400 72 120 0.0 0.0 0.00 0.00 0.00 93 1017.7
20260831064300 72 120 0.0 0.0 0.00 0.00 0.00 93 1017.7
20260831064159 72 120 0.0 0.0 0.00 0.00 0.00 93 1017.7
20260831064059 72 120 0.0 0.0 0.00 0.00 0.00 94 1017.7
20260831064003 72 120 0.0 0.0 0.00 0.00 0.00 94 1017.7
20260831063759 72 120 0.0 0.0 0.00 0.00 0.00 93 1017.8
20260831063659 72 120 0.0 0.0 0.00 0.00 0.00 93 1017.8
20260831063559 72 120 0.0 0.0 0.00 0.00 0.00 93 1017.7
20260831063504 72 120 0.0 0.0 0.00 0.00 0.00 93 1017.8
20260831063359 72 120 0.0 0.0 0.00 0.00 0.00 93 1017.8
20260831063257 72 120 0.0 0.0 0.00 0.00 0.00 93 1017.8
20260831063101 72 120 0.0 0.0 0.00 0.00 0.00 93 1017.8
20260831062959 72 120 0.0 0.0 0.00 0.00 0.00 93 1017.8
20260831062759 72 120 0.0 0.0 0.00 0.00 0.00 93 1017.7
20260831062659 72 120 0.0 0.0 0.00 0.00 0.00 93 1017.7
20260831062600 72 120 0.0 0.0 0.00 0.00 0.00 93 1017.7
20260831062500 72 120 0.0 0.0 0.00 0.00 0.00 93 1017.7
20260831062400 72 120 0.0 0.0 0.00 0.00 0.00 93 1017.7
20260831062259 72 120 0.0 0.0 0.00 0.00 0.00 93 1017.7
20260831062200 72 120 0.0 0.0 0.00 0.00 0.00 93 1017.7
20260831062059 72 120 0.0 0.0 0.00 0.00 0.00 93 1017.8
20260831062004 72 120 0.0 0.0 0.00 0.00 0.00 93 1017.7
20260831061900 72 120 0.0 0.0 0.00 0.00 0.00 93 1017.8
20260831061759 72 120 0.0 0.0 0.00 0.00 0.00 93 1017.7
20260831061701 72 120 0.0 0.0 0.00 0.00 0.00 93 1017.7
20260831061558 72 120 0.0 1.0 0.00 0.00 0.00 93 1017.7
20260831061503 72 120 0.0 1.0 0.00 0.00 0.00 93 1017.7
20260831061400 72 120 0.0 1.0 0.00 0.00 0.00 93 1017.7
20260831061259 72 120 0.0 2.0 0.00 0.00 0.00 93 1017.7
20260831061200 72 120 0.0 2.0 0.00 0.00 0.00 92 1017.7
20260831061059 72 120 0.0 2.0 0.00 0.00 0.00 93 1017.7
20260831061000 72 120 0.0 2.0 0.00 0.00 0.00 92 1017.8
20260831060900 72 120 0.0 2.0 0.00 0.00 0.00 92 1017.8
20260831060800 72 120 0.0 2.0 0.00 0.00 0.00 92 1017.8
20260831060659 72 120 1.0 3.0 0.00 0.00 0.00 92 1017.8
20260831060501 72 119 0.0 3.0 0.00 0.00 0.00 92 1017.9
20260831060359 72 119 1.0 3.0 0.00 0.00 0.00 91 1017.9
20260831060259 72 119 1.0 3.0 0.00 0.00 0.00 91 1017.9
20260831060200 72 119 0.0 3.0 0.00 0.00 0.00 91 1017.9
20260831060059 72 119 1.0 3.0 0.00 0.00 0.00 90 1017.9
20260831060004 72 119 1.0 3.0 0.00 0.00 0.00 89 1017.9
20260831055759 72 120 1.0 3.0 0.00 0.00 0.00 88 1017.9
20260831055659 72 119 1.0 2.0 0.00 0.00 0.00 88 1018.0
20260831055559 72 119 0.0 2.0 0.00 0.00 0.00 88 1018.0
20260831055503 72 119 0.0 2.0 0.00 0.00 0.00 88 1018.0
20260831055359 73 119 0.0 2.0 0.00 0.00 0.00 88 1017.9
20260831055159 73 119 0.0 2.0 0.00 0.00 0.00 88 1017.9
20260831055058 73 119 1.0 2.0 0.00 0.00 0.00 87 1017.9
20260831055000 73 119 0.0 0.0 0.00 0.00 0.00 87 1017.9
20260831054858 73 119 0.0 0.0 0.00 0.00 0.00 87 1018.0
20260831054700 73 119 0.0 0.0 0.00 0.00 0.00 87 1018.0
20260831054559 73 119 0.0 0.0 0.00 0.00 0.00 87 1018.0
20260831054501 73 119 0.0 0.0 0.00 0.00 0.00 87 1017.9
20260831054400 73 119 0.0 0.0 0.00 0.00 0.00 87 1017.9
20260831054300 73 119 0.0 0.0 0.00 0.00 0.00 87 1017.9
20260831054159 73 119 0.0 0.0 0.00 0.00 0.00 87 1017.8
20260831054003 73 119 0.0 0.0 0.00 0.00 0.00 87 1017.8
20260831053859 73 119 0.0 0.0 0.00 0.00 0.00 87 1017.9
20260831053800 73 119 0.0 0.0 0.00 0.00 0.00 87 1017.8
20260831053659 73 119 0.0 0.0 0.00 0.00 0.00 86 1017.8
20260831053559 73 119 0.0 0.0 0.00 0.00 0.00 86 1017.9
20260831053501 73 119 0.0 0.0 0.00 0.00 0.00 86 1017.8
20260831053400 73 119 0.0 0.0 0.00 0.00 0.00 86 1017.9
20260831053300 73 119 0.0 0.0 0.00 0.00 0.00 86 1017.8
20260831053200 73 119 0.0 0.0 0.00 0.00 0.00 85 1017.9
20260831053100 73 119 0.0 0.0 0.00 0.00 0.00 86 1017.9
20260831052859 73 119 0.0 0.0 0.00 0.00 0.00 85 1017.8
20260831052800 73 119 0.0 0.0 0.00 0.00 0.00 86 1017.8
20260831052659 73 119 0.0 1.0 0.00 0.00 0.00 85 1017.8
20260831052559 73 119 0.0 1.0 0.00 0.00 0.00 85 1017.8
20260831052504 73 119 0.0 1.0 0.00 0.00 0.00 85 1017.8
20260831052159 73 119 0.0 1.0 0.00 0.00 0.00 85 1017.9
20260831052100 73 119 0.0 1.0 0.00 0.00 0.00 85 1017.8
20260831052000 73 119 0.0 1.0 0.00 0.00 0.00 85 1017.8
20260831051859 73 119 0.0 1.0 0.00 0.00 0.00 85 1017.8
20260831051658 73 119 0.0 1.0 0.00 0.00 0.00 85 1017.7
20260831051559 73 119 0.0 2.0 0.00 0.00 0.00 86 1017.7
20260831051400 73 119 0.0 2.0 0.00 0.00 0.00 85 1017.6
20260831051258 73 119 0.0 2.0 0.00 0.00 0.00 85 1017.7
20260831051059 73 119 1.0 2.0 0.00 0.00 0.00 85 1017.6
20260831050859 73 119 0.0 5.0 0.00 0.00 0.00 85 1017.7
20260831050759 73 119 1.0 5.0 0.00 0.00 0.00 85 1017.7
20260831050659 73 119 1.0 5.0 0.00 0.00 0.00 85 1017.7
20260831050600 73 119 1.0 5.0 0.00 0.00 0.00 85 1017.6
20260831050503 73 119 0.0 5.0 0.00 0.00 0.00 85 1017.6
20260831050400 73 119 1.0 5.0 0.00 0.00 0.00 85 1017.6
20260831050300 73 30 2.0 5.0 0.00 0.00 0.00 85 1017.6
20260831050201 73 30 1.0 5.0 0.00 0.00 0.00 85 1017.7
20260831050100 73 30 2.0 5.0 0.00 0.00 0.00 86 1017.7
20260831050004 73 17 3.0 3.0 0.00 0.00 0.00 86 1017.8
20260831045900 73 146 0.0 3.0 0.00 0.00 0.00 86 1017.8
20260831045800 73 146 0.0 3.0 0.00 0.00 0.00 86 1017.8
20260831045659 73 146 1.0 3.0 0.00 0.00 0.00 87 1017.7
20260831045600 72 91 0.0 3.0 0.00 0.00 0.00 87 1017.8
20260831045501 72 90 0.0 3.0 0.00 0.00 0.00 87 1017.8
20260831045400 72 90 1.0 3.0 0.00 0.00 0.00 87 1017.9
20260831045301 72 5 0.0 2.0 0.00 0.00 0.00 87 1017.9
20260831045059 72 5 0.0 2.0 0.00 0.00 0.00 89 1017.8
20260831045003 72 5 0.0 2.0 0.00 0.00 0.00 89 1017.8
20260831044900 72 5 0.0 2.0 0.00 0.00 0.00 89 1017.8
20260831044759 72 5 0.0 1.0 0.00 0.00 0.00 89 1017.7
20260831044659 72 5 0.0 1.0 0.00 0.00 0.00 89 1017.8
20260831044600 72 5 0.0 1.0 0.00 0.00 0.00 89 1017.8
20260831044503 72 5 0.0 1.0 0.00 0.00 0.00 89 1017.8
20260831044259 72 5 0.0 1.0 0.00 0.00 0.00 90 1017.9
20260831044159 72 5 0.0 1.0 0.00 0.00 0.00 90 1017.8
20260831044100 72 5 0.0 1.0 0.00 0.00 0.00 90 1017.8
20260831044000 72 5 0.0 0.0 0.00 0.00 0.00 91 1017.8
20260831043900 72 5 0.0 0.0 0.00 0.00 0.00 91 1017.8
20260831043759 72 5 0.0 0.0 0.00 0.00 0.00 91 1017.7
20260831043659 72 5 0.0 0.0 0.00 0.00 0.00 91 1017.8
20260831043559 72 5 0.0 0.0 0.00 0.00 0.00 92 1017.8
20260831043500 72 5 0.0 0.0 0.00 0.00 0.00 92 1017.8
20260831043359 72 5 0.0 0.0 0.00 0.00 0.00 92 1017.9
20260831043259 72 5 0.0 0.0 0.00 0.00 0.00 92 1017.9
20260831043201 72 5 0.0 0.0 0.00 0.00 0.00 92 1017.8
20260831043059 72 5 0.0 0.0 0.00 0.00 0.00 92 1017.8
20260831043003 72 5 0.0 0.0 0.00 0.00 0.00 92 1017.8
20260831042900 72 5 0.0 0.0 0.00 0.00 0.00 92 1017.8
20260831042759 72 5 0.0 0.0 0.00 0.00 0.00 92 1017.8
20260831042659 72 5 0.0 0.0 0.00 0.00 0.00 92 1017.7
20260831042600 72 5 0.0 0.0 0.00 0.00 0.00 92 1017.8
20260831042501 72 5 0.0 0.0 0.00 0.00 0.00 93 1017.8
20260831042400 72 5 0.0 0.0 0.00 0.00 0.00 93 1017.9
20260831042259 72 5 0.0 0.0 0.00 0.00 0.00 93 1017.9
20260831042200 72 5 0.0 0.0 0.00 0.00 0.00 93 1017.9
20260831042103 72 5 0.0 0.0 0.00 0.00 0.00 93 1018.0
20260831042004 72 5 0.0 0.0 0.00 0.00 0.00 93 1018.0
20260831041900 72 5 0.0 0.0 0.00 0.00 0.00 94 1017.9
20260831041800 72 5 0.0 0.0 0.00 0.00 0.00 93 1017.9
20260831041659 72 5 0.0 0.0 0.00 0.00 0.00 93 1017.9
20260831041559 72 5 0.0 0.0 0.00 0.00 0.00 93 1018.0
20260831041504 72 5 0.0 0.0 0.00 0.00 0.00 93 1017.9
20260831041359 72 5 0.0 0.0 0.00 0.00 0.00 93 1017.8
20260831041300 72 5 0.0 0.0 0.00 0.00 0.00 93 1017.8
20260831041158 72 5 0.0 0.0 0.00 0.00 0.00 93 1017.8
20260831041000 72 5 0.0 0.0 0.00 0.00 0.00 94 1017.7
20260831040900 72 5 0.0 0.0 0.00 0.00 0.00 94 1017.7
20260831040759 72 5 0.0 0.0 0.00 0.00 0.00 93 1017.7
20260831040659 72 5 0.0 0.0 0.00 0.00 0.00 93 1017.8
20260831040559 73 5 0.0 0.0 0.00 0.00 0.00 93 1017.7
20260831040500 73 5 0.0 0.0 0.00 0.00 0.00 93 1017.7
20260831040359 73 5 0.0 0.0 0.00 0.00 0.00 93 1017.7
20260831040259 73 5 0.0 0.0 0.00 0.00 0.00 93 1017.7
20260831040202 73 5 0.0 0.0 0.00 0.00 0.00 93 1017.7
20260831040105 73 5 0.0 0.0 0.00 0.00 0.00 93 1017.7
20260831040008 73 5 0.0 0.0 0.00 0.00 0.00 94 1017.7
20260831035901 73 5 0.0 1.0 0.00 0.00 0.00 94 1017.7
20260831035801 73 5 0.0 2.0 0.00 0.00 0.00 94 1017.7
20260831035703 73 5 0.0 2.0 0.00 0.00 0.00 93 1017.7
20260831035505 73 5 0.0 2.0 0.00 0.00 0.00 93 1017.7
20260831035401 73 5 0.0 2.0 0.00 0.00 0.00 93 1017.7
20260831035306 73 5 0.0 2.0 0.00 0.00 0.00 94 1017.7
20260831035202 73 5 0.0 2.0 0.00 0.00 0.00 94 1017.8
20260831035003 72 5 0.0 2.0 0.00 0.00 0.00 94 1017.8
20260831034901 72 5 2.0 2.0 0.00 0.00 0.00 94 1017.7
20260831034801 72 5 0.0 2.0 0.00 0.00 0.00 93 1017.8
20260831034701 72 5 0.0 2.0 0.00 0.00 0.00 93 1017.8
20260831034601 72 5 0.0 2.0 0.00 0.00 0.00 94 1017.8
20260831034505 72 5 1.0 2.0 0.00 0.00 0.00 94 1017.8
20260831034402 73 5 0.0 1.0 0.00 0.00 0.00 94 1017.8
20260831034301 73 5 0.0 1.0 0.00 0.00 0.00 94 1017.9
20260831034201 73 5 1.0 1.0 0.00 0.00 0.00 94 1017.9
20260831034102 73 5 1.0 1.0 0.00 0.00 0.00 94 1018.0
20260831034004 73 5 0.0 1.0 0.00 0.00 0.00 94 1018.0
20260831033901 73 5 1.0 1.0 0.00 0.00 0.00 94 1018.0
20260831033801 73 5 0.0 1.0 0.00 0.00 0.00 94 1018.0
20260831033702 72 5 0.0 1.0 0.00 0.00 0.00 94 1018.0
20260831033602 73 5 0.0 1.0 0.00 0.00 0.00 94 1018.1
20260831033504 73 5 0.0 1.0 0.00 0.00 0.00 94 1018.1
20260831033401 73 5 0.0 1.0 0.00 0.00 0.00 94 1018.1
20260831033302 73 5 0.0 1.0 0.00 0.00 0.00 94 1018.1
20260831033202 73 5 0.0 0.0 0.00 0.00 0.00 94 1018.1
20260831033103 73 5 0.0 0.0 0.00 0.00 0.00 94 1018.2
20260831033004 73 5 0.0 0.0 0.00 0.00 0.00 94 1018.1
20260831032902 73 5 0.0 0.0 0.00 0.00 0.00 94 1018.2
20260831032801 73 5 0.0 0.0 0.00 0.00 0.00 94 1018.2
20260831032702 73 5 0.0 1.0 0.00 0.00 0.00 94 1018.2
20260831032602 73 5 0.0 1.0 0.00 0.00 0.00 94 1018.2
20260831032503 73 5 0.0 1.0 0.00 0.00 0.00 94 1018.2
20260831032401 73 5 0.0 1.0 0.00 0.00 0.00 94 1018.3
20260831032302 73 5 0.0 1.0 0.00 0.00 0.00 94 1018.3
20260831032201 73 5 0.0 1.0 0.00 0.00 0.00 94 1018.3
20260831032101 73 5 0.0 1.0 0.00 0.00 0.00 94 1018.3
20260831032004 73 5 0.0 1.0 0.00 0.00 0.00 94 1018.3
20260831031901 73 5 0.0 1.0 0.00 0.00 0.00 94 1018.3
20260831031802 73 5 0.0 1.0 0.00 0.00 0.00 94 1018.3
20260831031701 73 5 1.0 1.0 0.00 0.00 0.00 94 1018.4
20260831031504 73 5 0.0 0.0 0.00 0.00 0.00 94 1018.5
20260831031401 73 5 0.0 0.0 0.00 0.00 0.00 94 1018.4
20260831031301 73 5 0.0 0.0 0.00 0.00 0.00 94 1018.5
20260831031201 73 5 0.0 0.0 0.00 0.00 0.00 94 1018.4
20260831031005 73 5 0.0 0.0 0.00 0.00 0.00 94 1018.4
20260831030902 73 5 0.0 0.0 0.00 0.00 0.00 94 1018.4
20260831030802 73 5 0.0 0.0 0.00 0.00 0.00 94 1018.5
20260831030701 73 5 0.0 0.0 0.00 0.00 0.00 94 1018.5
20260831030401 73 5 0.0 1.0 0.00 0.00 0.00 94 1018.5
20260831030301 73 5 0.0 1.0 0.00 0.00 0.00 94 1018.5
20260831030201 73 5 0.0 1.0 0.00 0.00 0.00 94 1018.4
20260831030006 72 5 0.0 1.0 0.00 0.00 0.00 94 1018.4
20260831025901 72 5 0.0 1.0 0.00 0.00 0.00 94 1018.4
20260831025701 72 5 0.0 1.0 0.00 0.00 0.00 94 1018.4
20260831025505 72 5 0.0 2.0 0.00 0.00 0.00 94 1018.4
20260831025403 72 5 1.0 2.0 0.00 0.00 0.00 94 1018.4
20260831025202 72 5 1.0 2.0 0.00 0.00 0.00 94 1018.4
20260831025102 72 5 1.0 2.0 0.00 0.00 0.00 94 1018.4
20260831025005 72 5 0.0 2.0 0.00 0.00 0.00 94 1018.4
20260831024901 72 5 0.0 2.0 0.00 0.00 0.00 94 1018.4
20260831024802 72 5 0.0 2.0 0.00 0.00 0.00 95 1018.4
20260831024701 72 5 0.0 2.0 0.00 0.00 0.00 95 1018.4
20260831024504 72 5 0.0 1.0 0.00 0.00 0.00 95 1018.4
20260831024401 72 5 0.0 1.0 0.00 0.00 0.00 95 1018.4
20260831024301 72 5 0.0 0.0 0.00 0.00 0.00 95 1018.4
20260831024201 72 5 0.0 0.0 0.00 0.00 0.00 95 1018.4
20260831024101 72 5 0.0 0.0 0.00 0.00 0.00 95 1018.4
20260831024004 72 5 0.0 0.0 0.00 0.00 0.00 95 1018.4
20260831023901 72 5 0.0 0.0 0.00 0.00 0.00 95 1018.4
20260831023801 72 5 0.0 0.0 0.00 0.00 0.00 95 1018.4
20260831023602 72 5 0.0 0.0 0.00 0.00 0.00 95 1018.4
20260831023504 72 5 0.0 0.0 0.00 0.00 0.00 95 1018.4
20260831023401 72 5 0.0 0.0 0.00 0.00 0.00 95 1018.4
20260831023301 72 5 0.0 0.0 0.00 0.00 0.00 95 1018.4
20260831023202 72 5 0.0 0.0 0.00 0.00 0.00 95 1018.4
20260831023103 72 5 0.0 0.0 0.00 0.00 0.00 95 1018.4
20260831023005 72 5 0.0 0.0 0.00 0.00 0.00 95 1018.4
20260831022901 72 5 0.0 0.0 0.00 0.00 0.00 95 1018.4
20260831022801 72 5 0.0 0.0 0.00 0.00 0.00 95 1018.4
20260831022703 72 5 0.0 0.0 0.00 0.00 0.00 95 1018.4
20260831022504 72 5 0.0 0.0 0.00 0.00 0.00 94 1018.4
20260831022301 72 5 0.0 0.0 0.00 0.00 0.00 94 1018.5
20260831022201 72 5 0.0 0.0 0.00 0.00 0.00 94 1018.5
20260831022101 72 5 0.0 0.0 0.00 0.00 0.00 94 1018.5
20260831022004 72 5 0.0 0.0 0.00 0.00 0.00 94 1018.4
20260831021902 72 5 0.0 0.0 0.00 0.00 0.00 94 1018.5
20260831021802 72 5 0.0 0.0 0.00 0.00 0.00 94 1018.5
20260831021701 72 5 0.0 0.0 0.00 0.00 0.00 94 1018.5
20260831021603 72 5 0.0 0.0 0.00 0.00 0.00 94 1018.5
20260831021505 72 5 0.0 0.0 0.00 0.00 0.00 94 1018.5
20260831021401 72 5 0.0 0.0 0.00 0.00 0.00 94 1018.4
20260831021301 72 5 0.0 0.0 0.00 0.00 0.00 94 1018.4
20260831021202 72 5 0.0 0.0 0.00 0.00 0.00 94 1018.4
20260831021101 72 5 0.0 0.0 0.00 0.00 0.00 94 1018.4
20260831021005 72 5 0.0 0.0 0.00 0.00 0.00 94 1018.3
20260831020900 72 5 0.0 0.0 0.00 0.00 0.00 94 1018.3
20260831020803 72 5 0.0 0.0 0.00 0.00 0.00 94 1018.3
20260831020702 72 5 0.0 0.0 0.00 0.00 0.00 94 1018.3
20260831020602 72 5 0.0 0.0 0.00 0.00 0.00 94 1018.3
20260831020402 72 5 0.0 0.0 0.00 0.00 0.00 94 1018.3
20260831020301 72 5 0.0 0.0 0.00 0.00 0.00 94 1018.3
20260831020204 72 5 0.0 0.0 0.00 0.00 0.00 94 1018.3
20260831020004 72 5 0.0 2.0 0.00 0.00 0.00 94 1018.3
20260831015900 72 5 0.0 2.0 0.00 0.00 0.00 94 1018.3
20260831015800 72 5 0.0 2.0 0.00 0.00 0.00 94 1018.3
20260831015600 72 5 0.0 2.0 0.00 0.00 0.00 94 1018.2
20260831015505 72 5 0.0 2.0 0.00 0.00 0.00 94 1018.2
20260831015300 72 5 0.0 2.0 0.00 0.00 0.00 94 1018.1
20260831015201 72 5 0.0 2.0 0.00 0.00 0.00 94 1018.2
20260831015101 72 5 0.0 2.0 0.00 0.00 0.00 94 1018.2
20260831015003 72 5 1.0 2.0 0.00 0.00 0.00 94 1018.2
20260831014800 72 5 0.0 2.0 0.00 0.00 0.00 94 1018.3
20260831014700 72 5 0.0 2.0 0.00 0.00 0.00 94 1018.2
20260831014600 72 5 1.0 1.0 0.00 0.00 0.00 94 1018.2
20260831014504 72 5 0.0 0.0 0.00 0.00 0.00 94 1018.3
20260831014400 72 5 0.0 0.0 0.00 0.00 0.00 94 1018.3
20260831014300 72 5 0.0 0.0 0.00 0.00 0.00 94 1018.3
20260831014200 72 5 0.0 0.0 0.00 0.00 0.00 94 1018.3
20260831014100 72 5 0.0 0.0 0.00 0.00 0.00 94 1018.3
20260831014005 72 5 0.0 0.0 0.00 0.00 0.00 94 1018.3
20260831013900 72 5 0.0 0.0 0.00 0.00 0.00 94 1018.4
20260831013800 72 5 0.0 0.0 0.00 0.00 0.00 94 1018.3
20260831013701 72 5 0.0 0.0 0.00 0.00 0.00 94 1018.4
20260831013601 72 5 0.0 0.0 0.00 0.00 0.00 93 1018.3
20260831013503 72 5 0.0 0.0 0.00 0.00 0.00 93 1018.3
20260831013401 72 5 0.0 0.0 0.00 0.00 0.00 93 1018.3
20260831013300 72 5 0.0 0.0 0.00 0.00 0.00 93 1018.2
20260831013201 72 5 0.0 0.0 0.00 0.00 0.00 93 1018.2
20260831013101 73 5 0.0 0.0 0.00 0.00 0.00 93 1018.2
20260831013004 73 5 0.0 0.0 0.00 0.00 0.00 93 1018.2
20260831012859 73 5 0.0 0.0 0.00 0.00 0.00 93 1018.2
20260831012801 73 5 0.0 0.0 0.00 0.00 0.00 93 1018.2
20260831012701 73 5 0.0 0.0 0.00 0.00 0.00 93 1018.3
20260831012600 73 5 0.0 0.0 0.00 0.00 0.00 93 1018.2
20260831012505 73 5 0.0 0.0 0.00 0.00 0.00 93 1018.2
20260831012400 73 5 0.0 0.0 0.00 0.00 0.00 93 1018.2
20260831012305 73 5 0.0 0.0 0.00 0.00 0.00 93 1018.2
20260831012200 73 5 0.0 0.0 0.00 0.00 0.00 93 1018.1
20260831012101 73 5 0.0 0.0 0.00 0.00 0.00 93 1018.1
20260831012003 73 5 0.0 0.0 0.00 0.00 0.00 93 1018.1
20260831011900 73 5 0.0 0.0 0.00 0.00 0.00 93 1018.1
20260831011800 73 5 0.0 0.0 0.00 0.00 0.00 93 1018.0
20260831011701 73 5 0.0 0.0 0.00 0.00 0.00 93 1018.0
20260831011600 73 5 0.0 0.0 0.00 0.00 0.00 92 1018.0
20260831011505 73 5 0.0 0.0 0.00 0.00 0.00 92 1018.0
20260831011401 73 5 0.0 0.0 0.00 0.00 0.00 92 1018.0
20260831011300 73 5 0.0 0.0 0.00 0.00 0.00 92 1018.0
20260831011201 73 5 0.0 0.0 0.00 0.00 0.00 92 1018.0
20260831011100 73 5 0.0 0.0 0.00 0.00 0.00 92 1017.9
20260831011003 73 5 0.0 0.0 0.00 0.00 0.00 92 1018.0
20260831010900 73 5 0.0 0.0 0.00 0.00 0.00 92 1018.0
20260831010800 73 5 0.0 0.0 0.00 0.00 0.00 92 1017.9
20260831010700 73 5 0.0 0.0 0.00 0.00 0.00 92 1017.9
20260831010600 73 5 0.0 0.0 0.00 0.00 0.00 92 1017.9
20260831010504 73 5 0.0 0.0 0.00 0.00 0.00 92 1017.8
20260831010400 73 5 0.0 0.0 0.00 0.00 0.00 92 1017.9
20260831010301 73 5 0.0 0.0 0.00 0.00 0.00 92 1017.9
20260831010200 73 5 0.0 0.0 0.00 0.00 0.00 92 1017.9
20260831010059 73 5 0.0 0.0 0.00 0.00 0.00 92 1017.9
20260831005802 73 5 0.0 0.0 0.00 0.00 0.00 91 1017.8
20260831005701 73 5 0.0 0.0 0.00 0.00 0.00 91 1017.8
20260831005503 73 5 0.0 0.0 0.00 0.00 0.00 91 1017.7
20260831005402 73 5 0.0 0.0 0.00 0.00 0.00 91 1017.7
20260831005202 73 5 0.0 0.0 0.00 0.00 0.00 91 1017.6
20260831005101 73 5 0.0 0.0 0.00 0.00 0.00 91 1017.6
20260831005004 73 5 0.0 0.0 0.00 0.00 0.00 91 1017.6
20260831004901 73 5 0.0 0.0 0.00 0.00 0.00 91 1017.6
20260831004801 73 5 0.0 0.0 0.00 0.00 0.00 91 1017.6
20260831004701 73 5 0.0 0.0 0.00 0.00 0.00 91 1017.5
20260831004504 73 5 0.0 0.0 0.00 0.00 0.00 91 1017.5
20260831004403 73 5 0.0 0.0 0.00 0.00 0.00 91 1017.5
20260831004101 73 5 0.0 0.0 0.00 0.00 0.00 90 1017.4
20260831004004 73 5 0.0 0.0 0.00 0.00 0.00 90 1017.4
20260831003903 74 5 0.0 0.0 0.00 0.00 0.00 90 1017.4
20260831003801 74 5 0.0 0.0 0.00 0.00 0.00 90 1017.4
20260831003700 74 5 0.0 0.0 0.00 0.00 0.00 90 1017.4
20260831003600 74 5 0.0 0.0 0.00 0.00 0.00 90 1017.3
20260831003401 74 5 0.0 0.0 0.00 0.00 0.00 90 1017.3
20260831003302 74 5 0.0 0.0 0.00 0.00 0.00 90 1017.2
20260831003202 74 5 0.0 0.0 0.00 0.00 0.00 90 1017.2
20260831003101 74 5 0.0 0.0 0.00 0.00 0.00 90 1017.2
20260831003004 74 5 0.0 0.0 0.00 0.00 0.00 90 1017.1
20260831002900 74 5 0.0 0.0 0.00 0.00 0.00 90 1017.1
20260831002801 74 5 0.0 0.0 0.00 0.00 0.00 89 1017.1
20260831002602 74 5 0.0 0.0 0.00 0.00 0.00 89 1017.1
20260831002503 74 5 0.0 0.0 0.00 0.00 0.00 89 1017.0
20260831002401 74 5 0.0 0.0 0.00 0.00 0.00 89 1017.0
20260831002201 74 5 0.0 0.0 0.00 0.00 0.00 89 1017.0
20260831001902 74 5 0.0 0.0 0.00 0.00 0.00 88 1016.9
20260831001701 74 5 0.0 0.0 0.00 0.00 0.00 88 1016.9
20260831001602 74 5 0.0 0.0 0.00 0.00 0.00 87 1016.8
20260831001504 74 5 0.0 0.0 0.00 0.00 0.00 87 1016.8
20260831001301 74 5 0.0 0.0 0.00 0.00 0.00 87 1016.8
20260831001201 74 5 0.0 0.0 0.00 0.00 0.00 88 1016.7
20260831001102 74 5 0.0 0.0 0.00 0.00 0.00 88 1016.6
20260831001004 74 5 0.0 0.0 0.00 0.00 0.00 88 1016.6
20260831000901 74 5 0.0 0.0 0.00 0.00 0.00 88 1016.5
20260831000701 75 5 0.0 0.0 0.00 0.00 0.00 88 1016.6
20260831000602 75 5 0.0 0.0 0.00 0.00 0.00 88 1016.6
20260831000504 75 5 0.0 0.0 0.00 0.00 0.00 88 1016.6
20260831000402 75 5 0.0 0.0 0.00 0.00 0.00 88 1016.6
20260831000203 75 5 0.0 0.0 0.00 0.00 0.00 87 1016.6
20260831000004 75 5 0.0 0.0 0.00 0.00 0.00 86 1016.5
20260830235901 75 5 0.0 0.0 0.00 0.00 0.00 86 1016.6
20260830235701 75 5 0.0 0.0 0.00 0.00 0.00 86 1016.6
20260830235402 75 5 0.0 0.0 0.00 0.00 0.00 86 1016.4
20260830235300 75 5 0.0 0.0 0.00 0.00 0.00 85 1016.5
20260830235202 75 5 0.0 0.0 0.00 0.00 0.00 85 1016.5
20260830235102 75 5 0.0 0.0 0.00 0.00 0.00 85 1016.5
20260830235004 76 5 0.0 0.0 0.00 0.00 0.00 85 1016.5
20260830234902 76 5 0.0 0.0 0.00 0.00 0.00 85 1016.5
20260830234801 76 5 0.0 0.0 0.00 0.00 0.00 85 1016.5
20260830234702 76 5 0.0 0.0 0.00 0.00 0.00 85 1016.5
20260830234504 76 5 0.0 0.0 0.00 0.00 0.00 85 1016.6
20260830234402 76 5 0.0 0.0 0.00 0.00 0.00 85 1016.6
20260830234201 76 5 0.0 0.0 0.00 0.00 0.00 85 1016.6
20260830234101 76 5 0.0 0.0 0.00 0.00 0.00 84 1016.6
20260830234005 76 5 0.0 0.0 0.00 0.00 0.00 84 1016.7
20260830233901 76 5 0.0 0.0 0.00 0.00 0.00 85 1016.6
20260830233802 76 5 0.0 0.0 0.00 0.00 0.00 85 1016.6
20260830233702 76 5 0.0 0.0 0.00 0.00 0.00 85 1016.7
20260830233601 76 5 0.0 0.0 0.00 0.00 0.00 84 1016.7
20260830233504 76 5 0.0 0.0 0.00 0.00 0.00 84 1016.7
20260830233402 76 5 0.0 0.0 0.00 0.00 0.00 84 1016.7
20260830233301 76 5 0.0 0.0 0.00 0.00 0.00 84 1016.7
20260830233202 76 5 0.0 0.0 0.00 0.00 0.00 83 1016.7
20260830233102 76 5 0.0 0.0 0.00 0.00 0.00 83 1016.7
20260830233005 76 5 0.0 0.0 0.00 0.00 0.00 83 1016.8
20260830232901 76 5 0.0 0.0 0.00 0.00 0.00 83 1016.7
20260830232801 76 5 0.0 0.0 0.00 0.00 0.00 83 1016.8
20260830232702 76 5 0.0 0.0 0.00 0.00 0.00 83 1016.8
20260830232504 76 5 0.0 0.0 0.00 0.00 0.00 83 1016.8
20260830232401 76 5 0.0 0.0 0.00 0.00 0.00 82 1016.8
20260830232101 77 5 0.0 0.0 0.00 0.00 0.00 82 1016.8
20260830232004 77 5 0.0 0.0 0.00 0.00 0.00 82 1016.8
20260830231901 77 5 0.0 0.0 0.00 0.00 0.00 82 1016.9
20260830231804 77 5 0.0 0.0 0.00 0.00 0.00 82 1016.9
20260830231702 77 5 0.0 0.0 0.00 0.00 0.00 82 1016.8
20260830231602 77 5 0.0 0.0 0.00 0.00 0.00 82 1016.8
20260830231505 77 5 0.0 0.0 0.00 0.00 0.00 82 1016.8
20260830231401 77 5 0.0 0.0 0.00 0.00 0.00 82 1016.8
20260830231301 77 5 0.0 0.0 0.00 0.00 0.00 81 1016.7
20260830231201 77 5 0.0 0.0 0.00 0.00 0.00 82 1016.8
20260830231101 77 5 0.0 0.0 0.00 0.00 0.00 81 1016.8
20260830231005 77 5 0.0 0.0 0.00 0.00 0.00 82 1016.8
20260830230801 77 5 0.0 0.0 0.00 0.00 0.00 81 1016.8
20260830230602 77 5 0.0 0.0 0.00 0.00 0.00 82 1016.8
20260830230301 77 5 0.0 0.0 0.00 0.00 0.00 82 1016.8
20260830230201 77 5 0.0 0.0 0.00 0.00 0.00 82 1016.8
20260830230004 77 5 0.0 0.0 0.00 0.00 0.00 82 1016.8
20260830225902 77 5 0.0 0.0 0.00 0.00 0.00 82 1016.8
20260830225801 77 5 0.0 0.0 0.00 0.00 0.00 81 1016.8
20260830225701 77 5 0.0 0.0 0.00 0.00 0.00 81 1016.8
20260830225601 77 5 0.0 0.0 0.00 0.00 0.00 81 1016.7
20260830225504 77 5 0.0 0.0 0.00 0.00 0.00 81 1016.7
20260830225401 78 5 0.0 0.0 0.00 0.00 0.00 81 1016.7
20260830225305 78 5 0.0 0.0 0.00 0.00 0.00 81 1016.7
20260830225201 78 5 0.0 0.0 0.00 0.00 0.00 81 1016.7
20260830225101 78 5 0.0 0.0 0.00 0.00 0.00 81 1016.7
20260830225005 78 5 0.0 0.0 0.00 0.00 0.00 81 1016.8
20260830224901 78 5 0.0 0.0 0.00 0.00 0.00 81 1016.8
20260830224702 78 5 0.0 0.0 0.00 0.00 0.00 81 1016.7
20260830224602 78 5 0.0 0.0 0.00 0.00 0.00 81 1016.7
20260830224504 78 5 0.0 0.0 0.00 0.00 0.00 80 1016.8
20260830224403 78 5 0.0 0.0 0.00 0.00 0.00 79 1016.8
20260830224302 78 5 0.0 0.0 0.00 0.00 0.00 79 1016.8
20260830224101 78 5 0.0 0.0 0.00 0.00 0.00 79 1016.8
20260830224004 78 5 0.0 0.0 0.00 0.00 0.00 79 1016.8
20260830223901 78 5 0.0 0.0 0.00 0.00 0.00 80 1016.8
20260830223801 79 5 0.0 0.0 0.00 0.00 0.00 80 1016.8
20260830223702 79 5 0.0 0.0 0.00 0.00 0.00 79 1016.9
20260830223504 79 5 0.0 0.0 0.00 0.00 0.00 80 1016.9
20260830223401 79 5 0.0 0.0 0.00 0.00 0.00 79 1016.9
20260830223301 79 5 0.0 0.0 0.00 0.00 0.00 79 1016.9
20260830223201 79 5 0.0 0.0 0.00 0.00 0.00 80 1016.9
20260830223101 79 5 0.0 0.0 0.00 0.00 0.00 80 1017.0
20260830223005 79 5 0.0 0.0 0.00 0.00 0.00 78 1016.9
20260830222803 79 5 0.0 0.0 0.00 0.00 0.00 77 1017.0
20260830222701 79 5 0.0 0.0 0.00 0.00 0.00 77 1017.0
20260830222601 80 5 0.0 0.0 0.00 0.00 0.00 77 1017.0
20260830222505 80 5 0.0 0.0 0.00 0.00 0.00 77 1017.0
20260830222402 80 5 0.0 0.0 0.00 0.00 0.00 77 1017.0
20260830222301 80 5 0.0 0.0 0.00 0.00 0.00 77 1017.0
20260830222100 80 5 0.0 0.0 0.00 0.00 0.00 78 1016.9
20260830222004 80 5 0.0 0.0 0.00 0.00 0.00 78 1016.9
20260830221902 80 5 0.0 0.0 0.00 0.00 0.00 80 1016.9
20260830221803 80 5 0.0 0.0 0.00 0.00 0.00 81 1016.9
20260830221703 80 5 0.0 0.0 0.00 0.00 0.00 80 1016.9
20260830221602 80 5 0.0 0.0 0.00 0.00 0.00 80 1016.8
20260830221503 80 5 0.0 0.0 0.00 0.00 0.00 77 1016.8
20260830221401 80 5 0.0 0.0 0.00 0.00 0.00 78 1016.9
20260830221202 80 5 0.0 0.0 0.00 0.00 0.00 77 1016.8
20260830221102 80 5 0.0 0.0 0.00 0.00 0.00 76 1016.8
20260830221004 81 5 0.0 0.0 0.00 0.00 0.00 76 1016.8
20260830220901 81 5 0.0 0.0 0.00 0.00 0.00 76 1016.8
20260830220802 81 5 0.0 0.0 0.00 0.00 0.00 76 1016.9
20260830220701 81 5 0.0 0.0 0.00 0.00 0.00 76 1016.9
20260830220601 81 5 0.0 2.0 0.00 0.00 0.00 75 1016.8
20260830220504 81 5 0.0 2.0 0.00 0.00 0.00 75 1016.8
20260830220400 81 5 0.0 2.0 0.00 0.00 0.00 76 1016.8
20260830220301 81 5 0.0 2.0 0.00 0.00 0.00 75 1016.7
20260830220201 81 5 0.0 3.0 0.00 0.00 0.00 74 1016.8
20260830220005 81 5 0.0 4.0 0.00 0.00 0.00 75 1016.7
20260830215903 81 5 0.0 4.0 0.00 0.00 0.00 73 1016.6
20260830215505 81 5 2.0 4.0 0.00 0.00 0.00 73 1016.6
20260830215402 81 5 1.0 4.0 0.00 0.00 0.00 73 1016.6
20260830215305 81 5 1.0 4.0 0.00 0.00 0.00 74 1016.6
20260830215202 81 5 3.0 4.0 0.00 0.00 0.00 73 1016.6
20260830215102 81 355 2.0 3.0 0.00 0.00 0.00 75 1016.6
20260830215004 81 90 0.0 2.0 0.00 0.00 0.00 74 1016.6
20260830214903 81 90 0.0 2.0 0.00 0.00 0.00 74 1016.6
20260830214802 81 90 0.0 2.0 0.00 0.00 0.00 76 1016.5
20260830214702 81 90 0.0 2.0 0.00 0.00 0.00 76 1016.5
20260830214602 81 90 1.0 2.0 0.00 0.00 0.00 76 1016.5
20260830214504 81 90 0.0 2.0 0.00 0.00 0.00 77 1016.5
20260830214401 81 90 1.0 2.0 0.00 0.00 0.00 80 1016.5
20260830214302 81 90 0.0 2.0 0.00 0.00 0.00 80 1016.5
20260830214201 81 90 0.0 2.0 0.00 0.00 0.00 81 1016.5
20260830214101 81 90 0.0 2.0 0.00 0.00 0.00 81 1016.6
20260830214004 81 90 0.0 2.0 0.00 0.00 0.00 81 1016.6
20260830213802 81 90 0.0 2.0 0.00 0.00 0.00 80 1016.5
20260830213602 81 90 0.0 0.0 0.00 0.00 0.00 81 1016.5
20260830213401 81 90 0.0 0.0 0.00 0.00 0.00 82 1016.4
20260830213302 81 90 0.0 0.0 0.00 0.00 0.00 84 1016.5
20260830213200 81 90 0.0 0.0 0.00 0.00 0.00 83 1016.5
20260830213101 81 90 0.0 0.0 0.00 0.00 0.00 81 1016.4
20260830213005 81 90 0.0 0.0 0.00 0.00 0.00 82 1016.4
20260830212901 81 90 0.0 0.0 0.00 0.00 0.00 82 1016.4
20260830212803 81 90 0.0 0.0 0.00 0.00 0.00 80 1016.4
20260830212601 81 90 0.0 0.0 0.00 0.00 0.00 79 1016.5
20260830212305 81 90 0.0 0.0 0.00 0.00 0.00 79 1016.4
20260830212202 81 90 0.0 0.0 0.00 0.00 0.00 79 1016.5
20260830212105 81 90 0.0 0.0 0.00 0.00 0.00 79 1016.4
20260830212005 81 90 0.0 0.0 0.00 0.00 0.00 79 1016.4
20260830211901 82 90 0.0 0.0 0.00 0.00 0.00 78 1016.5
20260830211803 82 90 0.0 0.0 0.00 0.00 0.00 78 1016.5
20260830211702 82 90 0.0 0.0 0.00 0.00 0.00 78 1016.5
20260830211603 82 90 0.0 0.0 0.00 0.00 0.00 78 1016.5
20260830211504 82 90 0.0 0.0 0.00 0.00 0.00 79 1016.5
20260830211403 82 90 0.0 0.0 0.00 0.00 0.00 79 1016.5
20260830211301 82 90 0.0 0.0 0.00 0.00 0.00 79 1016.5
20260830211202 82 90 0.0 0.0 0.00 0.00 0.00 78 1016.5
20260830211100 82 90 0.0 0.0 0.00 0.00 0.00 77 1016.5
20260830211004 82 90 0.0 0.0 0.00 0.00 0.00 77 1016.4
20260830210901 82 90 0.0 0.0 0.00 0.00 0.00 76 1016.4
20260830210801 82 90 0.0 0.0 0.00 0.00 0.00 76 1016.4
20260830210602 82 90 0.0 0.0 0.00 0.00 0.00 77 1016.4
20260830210504 82 90 0.0 1.0 0.00 0.00 0.00 78 1016.4
20260830210401 82 90 0.0 1.0 0.00 0.00 0.00 79 1016.5
20260830210203 82 90 0.0 1.0 0.00 0.00 0.00 77 1016.5
20260830210100 82 90 0.0 1.0 0.00 0.00 0.00 76 1016.5
20260830210004 82 90 0.0 1.0 0.00 0.00 0.00 76 1016.5
20260830205901 82 90 0.0 1.0 0.00 0.00 0.00 77 1016.6
20260830205703 82 90 0.0 1.0 0.00 0.00 0.00 77 1016.6
20260830205600 82 90 0.0 1.0 0.00 0.00 0.00 77 1016.5
20260830205505 82 90 1.0 1.0 0.00 0.00 0.00 76 1016.5
20260830205402 83 90 0.0 1.0 0.00 0.00 0.00 76 1016.5
20260830205301 83 90 0.0 1.0 0.00 0.00 0.00 76 1016.5
20260830205200 83 90 0.0 1.0 0.00 0.00 0.00 75 1016.5
20260830205101 83 90 0.0 1.0 0.00 0.00 0.00 76 1016.4
20260830205005 83 90 0.0 1.0 0.00 0.00 0.00 75 1016.4
20260830204900 83 90 0.0 1.0 0.00 0.00 0.00 76 1016.4
20260830204800 83 90 0.0 1.0 0.00 0.00 0.00 75 1016.4
20260830204701 83 90 0.0 1.0 0.00 0.00 0.00 75 1016.4
20260830204601 83 90 0.0 1.0 0.00 0.00 0.00 75 1016.4
20260830204400 83 90 0.0 2.0 0.00 0.00 0.00 77 1016.3
20260830204300 83 90 0.0 2.0 0.00 0.00 0.00 75 1016.4
20260830204200 83 90 0.0 2.0 0.00 0.00 0.00 76 1016.4
20260830204101 83 90 1.0 3.0 0.00 0.00 0.00 76 1016.3
20260830203901 84 90 0.0 3.0 0.00 0.00 0.00 78 1016.3
20260830203800 84 90 0.0 3.0 0.00 0.00 0.00 77 1016.4
20260830203700 84 90 0.0 3.0 0.00 0.00 0.00 74 1016.4
20260830203600 84 90 1.0 3.0 0.00 0.00 0.00 72 1016.5
20260830203504 84 90 0.0 3.0 0.00 0.00 0.00 72 1016.5
20260830203301 84 90 2.0 3.0 0.00 0.00 0.00 73 1016.6
20260830203004 84 46 0.0 3.0 0.00 0.00 0.00 73 1016.6
20260830202901 84 46 0.0 3.0 0.00 0.00 0.00 74 1016.6
20260830202700 84 46 2.0 3.0 0.00 0.00 0.00 75 1016.6
20260830202601 84 46 2.0 3.0 0.00 0.00 0.00 76 1016.6
20260830202504 83 47 1.0 4.0 0.00 0.00 0.00 76 1016.6
20260830202301 83 47 0.0 4.0 0.00 0.00 0.00 76 1016.6
20260830202004 83 26 0.0 4.0 0.00 0.00 0.00 75 1016.6
20260830201900 83 26 0.0 4.0 0.00 0.00 0.00 75 1016.7
20260830201801 83 27 0.0 4.0 0.00 0.00 0.00 76 1016.6
20260830201700 83 26 3.0 4.0 0.00 0.00 0.00 77 1016.6
20260830201600 83 26 2.0 4.0 0.00 0.00 0.00 78 1016.6
20260830201504 83 48 1.0 4.0 0.00 0.00 0.00 78 1016.6
20260830201401 82 26 2.0 4.0 0.00 0.00 0.00 79 1016.6
20260830201302 82 96 0.0 2.0 0.00 0.00 0.00 77 1016.6
20260830201200 82 96 0.0 2.0 0.00 0.00 0.00 78 1016.6
20260830201102 82 96 0.0 2.0 0.00 0.00 0.00 79 1016.6
20260830201003 82 96 0.0 2.0 0.00 0.00 0.00 78 1016.6
20260830200900 82 96 0.0 2.0 0.00 0.00 0.00 79 1016.6
20260830200801 82 96 0.0 2.0 0.00 0.00 0.00 79 1016.6
20260830200700 82 96 0.0 2.0 0.00 0.00 0.00 78 1016.6
20260830200600 82 96 0.0 2.0 0.00 0.00 0.00 78 1016.6
20260830200503 82 96 1.0 2.0 0.00 0.00 0.00 76 1016.6
20260830200401 82 140 0.0 0.0 0.00 0.00 0.00 79 1016.6
20260830200300 82 141 0.0 0.0 0.00 0.00 0.00 77 1016.6
20260830200200 82 141 0.0 0.0 0.00 0.00 0.00 77 1016.6
20260830200004 82 141 0.0 0.0 0.00 0.00 0.00 76 1016.6
20260830195800 82 141 0.0 0.0 0.00 0.00 0.00 77 1016.7
20260830195702 83 141 0.0 0.0 0.00 0.00 0.00 76 1016.6
20260830195503 83 141 0.0 1.0 0.00 0.00 0.00 77 1016.7
20260830195359 83 141 0.0 1.0 0.00 0.00 0.00 76 1016.7
20260830195304 83 140 0.0 1.0 0.00 0.00 0.00 76 1016.7
20260830195202 83 141 0.0 1.0 0.00 0.00 0.00 78 1016.7
20260830195004 83 29 0.0 1.0 0.00 0.00 0.00 79 1016.8
20260830194900 83 29 0.0 1.0 0.00 0.00 0.00 79 1016.8
20260830194800 83 29 0.0 1.0 0.00 0.00 0.00 77 1016.8
20260830194700 83 29 0.0 1.0 0.00 0.00 0.00 77 1016.9
20260830194602 83 29 0.0 1.0 0.00 0.00 0.00 77 1016.8
20260830194504 83 29 0.0 1.0 0.00 0.00 0.00 77 1016.9
20260830194300 83 29 0.0 2.0 0.00 0.00 0.00 78 1016.9
20260830194200 83 29 0.0 2.0 0.00 0.00 0.00 78 1017.0
20260830194100 83 29 0.0 2.0 0.00 0.00 0.00 80 1017.0
20260830194005 83 29 0.0 2.0 0.00 0.00 0.00 80 1017.0
20260830193803 83 29 0.0 2.0 0.00 0.00 0.00 78 1017.0
20260830193701 83 29 0.0 3.0 0.00 0.00 0.00 78 1017.0
20260830193601 83 29 0.0 3.0 0.00 0.00 0.00 78 1017.1
20260830193504 83 29 0.0 3.0 0.00 0.00 0.00 79 1017.1
20260830193301 83 29 1.0 3.0 0.00 0.00 0.00 79 1017.0
20260830193100 83 29 1.0 3.0 0.00 0.00 0.00 80 1017.1
20260830192859 82 29 0.0 3.0 0.00 0.00 0.00 80 1017.1
20260830192800 82 29 1.0 3.0 0.00 0.00 0.00 80 1017.1
20260830192700 82 175 1.0 1.0 0.00 0.00 0.00 79 1017.1
20260830192402 82 175 0.0 2.0 0.00 0.00 0.00 78 1017.2
20260830192300 82 175 0.0 2.0 0.00 0.00 0.00 79 1017.2
20260830192202 82 175 0.0 2.0 0.00 0.00 0.00 79 1017.2
20260830192100 82 175 0.0 2.0 0.00 0.00 0.00 78 1017.3
20260830191900 83 175 0.0 2.0 0.00 0.00 0.00 77 1017.3
20260830191801 83 175 0.0 2.0 0.00 0.00 0.00 77 1017.2
20260830191700 83 175 0.0 2.0 0.00 0.00 0.00 78 1017.3
20260830191600 83 175 1.0 2.0 0.00 0.00 0.00 76 1017.3
20260830191505 83 175 0.0 2.0 0.00 0.00 0.00 77 1017.3
20260830191404 83 175 1.0 2.0 0.00 0.00 0.00 77 1017.3
20260830191304 83 164 0.0 2.0 0.00 0.00 0.00 78 1017.3
20260830191202 83 164 0.0 2.0 0.00 0.00 0.00 76 1017.3
20260830191101 83 164 0.0 2.0 0.00 0.00 0.00 77 1017.4
20260830191004 83 142 0.0 1.0 0.00 0.00 0.00 79 1017.4
20260830190903 83 142 0.0 1.0 0.00 0.00 0.00 79 1017.4
20260830190800 83 142 0.0 1.0 0.00 0.00 0.00 78 1017.4
20260830190704 83 142 0.0 1.0 0.00 0.00 0.00 79 1017.4
20260830190601 83 142 0.0 1.0 0.00 0.00 0.00 79 1017.5
20260830190507 83 142 0.0 1.0 0.00 0.00 0.00 81 1017.5
20260830190359 83 142 0.0 1.0 0.00 0.00 0.00 82 1017.5
20260830190300 83 142 0.0 1.0 0.00 0.00 0.00 81 1017.5
20260830190201 83 142 1.0 2.0 0.00 0.00 0.00 79 1017.5
20260830190101 83 142 1.0 2.0 0.00 0.00 0.00 78 1017.6
20260830190002 83 142 1.0 2.0 0.00 0.00 0.00 78 1017.6
20260830185901 83 142 0.0 4.0 0.00 0.00 0.00 77 1017.6
20260830185701 83 142 0.0 4.0 0.00 0.00 0.00 78 1017.6
20260830185602 83 142 0.0 4.0 0.00 0.00 0.00 76 1017.6
20260830185504 83 142 1.0 4.0 0.00 0.00 0.00 78 1017.5
20260830185400 83 142 0.0 4.0 0.00 0.00 0.00 78 1017.5
20260830185200 83 142 1.0 4.0 0.00 0.00 0.00 77 1017.5
20260830185102 83 142 1.0 4.0 0.00 0.00 0.00 76 1017.5
20260830185004 83 142 2.0 4.0 0.00 0.00 0.00 76 1017.6
20260830184900 83 147 4.0 4.0 0.00 0.00 0.00 76 1017.6
20260830184801 83 143 1.0 3.0 0.00 0.00 0.00 77 1017.6
20260830184702 83 137 3.0 3.0 0.00 0.00 0.00 77 1017.7
20260830184600 83 136 0.0 3.0 0.00 0.00 0.00 75 1017.7
20260830184503 83 136 1.0 3.0 0.00 0.00 0.00 75 1017.7
20260830184400 83 138 2.0 5.0 0.00 0.00 0.00 77 1017.7
20260830184005 83 150 1.0 5.0 0.00 0.00 0.00 79 1017.8
20260830183859 83 150 0.0 5.0 0.00 0.00 0.00 78 1017.9
20260830183801 83 150 1.0 5.0 0.00 0.00 0.00 78 1017.9
20260830183659 83 150 1.0 5.0 0.00 0.00 0.00 77 1017.9
20260830183604 83 150 0.0 5.0 0.00 0.00 0.00 76 1018.0
20260830183504 83 153 4.0 4.0 0.00 0.00 0.00 76 1018.0
20260830183400 83 66 0.0 3.0 0.00 0.00 0.00 76 1018.0
20260830183259 83 279 0.0 3.0 0.00 0.00 0.00 77 1018.0
20260830183201 83 279 0.0 4.0 0.00 0.00 0.00 78 1018.0
20260830183100 83 279 0.0 4.0 0.00 0.00 0.00 76 1018.0
20260830183004 83 279 0.0 4.0 0.00 0.00 0.00 77 1018.0
20260830182901 83 279 2.0 4.0 0.00 0.00 0.00 77 1018.0
20260830182800 83 279 1.0 5.0 0.00 0.00 0.00 76 1018.0
20260830182700 83 279 1.0 5.0 0.00 0.00 0.00 76 1018.0
20260830182601 83 279 2.0 7.0 0.00 0.00 0.00 77 1018.0
20260830182504 83 265 2.0 7.0 0.00 0.00 0.00 78 1018.0
20260830182400 83 265 2.0 7.0 0.00 0.00 0.00 77 1018.0
20260830182300 83 255 3.0 7.0 0.00 0.00 0.00 76 1017.9
20260830182200 83 230 2.0 7.0 0.00 0.00 0.00 77 1018.0
20260830182100 83 215 0.0 7.0 0.00 0.00 0.00 78 1018.0
20260830182005 83 215 3.0 7.0 0.00 0.00 0.00 77 1018.0
20260830181900 83 20 5.0 7.0 0.00 0.00 0.00 77 1018.0
20260830181600 83 144 3.0 4.0 0.00 0.00 0.00 77 1018.1
20260830181504 83 165 1.0 5.0 0.00 0.00 0.00 78 1018.1
20260830181401 83 166 0.0 5.0 0.00 0.00 0.00 78 1018.0
20260830181300 83 166 1.0 5.0 0.00 0.00 0.00 77 1018.1
20260830181200 83 166 0.0 5.0 0.00 0.00 0.00 77 1018.1
20260830181103 83 166 1.0 5.0 0.00 0.00 0.00 78 1018.1
20260830181005 83 166 0.0 5.0 0.00 0.00 0.00 79 1018.1
20260830180901 83 161 4.0 5.0 0.00 0.00 0.00 78 1018.2
20260830180801 83 185 2.0 2.0 0.00 0.00 0.00 78 1018.1
20260830180700 83 65 0.0 3.0 0.00 0.00 0.00 75 1018.3
20260830180600 83 65 0.0 3.0 0.00 0.00 0.00 76 1018.3
20260830180503 83 65 2.0 7.0 0.00 0.00 0.00 75 1018.3
20260830180400 83 65 1.0 7.0 0.00 0.00 0.00 76 1018.3
20260830180300 83 65 0.0 7.0 0.00 0.00 0.00 76 1018.3
20260830180201 83 65 2.0 7.0 0.00 0.00 0.00 76 1018.3
20260830180100 83 85 2.0 7.0 0.00 0.00 0.00 78 1018.4
20260830180004 83 161 2.0 7.0 0.00 0.00 0.00 79 1018.4
20260830175701 83 161 1.0 7.0 0.00 0.00 0.00 76 1018.4
20260830175504 83 145 6.0 7.0 0.00 0.00 0.00 78 1018.5
20260830175401 83 198 2.0 7.0 0.00 0.00 0.00 77 1018.5
20260830175305 83 198 2.0 7.0 0.00 0.00 0.00 76 1018.5
20260830175201 83 154 2.0 7.0 0.00 0.00 0.00 77 1018.5
20260830175100 83 105 0.0 7.0 0.00 0.00 0.00 77 1018.6
20260830175004 83 184 0.0 7.0 0.00 0.00 0.00 78 1018.6
20260830174900 83 184 1.0 7.0 0.00 0.00 0.00 77 1018.6
20260830174804 82 141 1.0 4.0 0.00 0.00 0.00 77 1018.6
20260830174601 82 213 1.0 6.0 0.00 0.00 0.00 79 1018.6
20260830174504 82 143 3.0 6.0 0.00 0.00 0.00 80 1018.6
20260830174402 82 75 0.0 6.0 0.00 0.00 0.00 77 1018.7
20260830174301 82 75 1.0 6.0 0.00 0.00 0.00 78 1018.6
20260830174201 82 75 1.0 6.0 0.00 0.00 0.00 78 1018.6
20260830174100 82 76 2.0 6.0 0.00 0.00 0.00 77 1018.7
20260830173902 82 76 0.0 6.0 0.00 0.00 0.00 77 1018.6
20260830173701 82 173 1.0 6.0 0.00 0.00 0.00 78 1018.7
20260830173600 82 173 0.0 6.0 0.00 0.00 0.00 79 1018.6
20260830173503 82 173 0.0 6.0 0.00 0.00 0.00 80 1018.7
20260830173400 82 173 3.0 6.0 0.00 0.00 0.00 79 1018.7
20260830173301 82 139 1.0 4.0 0.00 0.00 0.00 79 1018.7
20260830173201 82 129 2.0 4.0 0.00 0.00 0.00 80 1018.6
20260830173102 82 129 0.0 4.0 0.00 0.00 0.00 80 1018.7
20260830173004 82 129 1.0 4.0 0.00 0.00 0.00 78 1018.8
20260830172859 81 9 0.0 4.0 0.00 0.00 0.00 78 1018.8
20260830172801 81 9 0.0 4.0 0.00 0.00 0.00 78 1018.8
20260830172701 81 9 1.0 4.0 0.00 0.00 0.00 79 1018.8
20260830172601 81 263 1.0 3.0 0.00 0.00 0.00 79 1018.9
20260830172504 81 205 1.0 2.0 0.00 0.00 0.00 80 1018.9
20260830172402 81 205 1.0 3.0 0.00 0.00 0.00 80 1018.9
20260830172301 81 212 0.0 3.0 0.00 0.00 0.00 79 1018.9
20260830172200 81 213 0.0 3.0 0.00 0.00 0.00 78 1019.0
20260830172005 81 213 0.0 3.0 0.00 0.00 0.00 79 1019.0
20260830171900 81 213 0.0 3.0 0.00 0.00 0.00 82 1019.0
20260830171701 81 213 0.0 4.0 0.00 0.00 0.00 80 1018.9
20260830171603 80 213 1.0 4.0 0.00 0.00 0.00 81 1019.0
20260830171403 80 213 0.0 4.0 0.00 0.00 0.00 79 1018.9
20260830171301 80 213 0.0 4.0 0.00 0.00 0.00 80 1018.9
20260830171201 80 213 1.0 4.0 0.00 0.00 0.00 81 1019.0
20260830171102 80 210 2.0 4.0 0.00 0.00 0.00 81 1019.0
20260830171004 80 209 2.0 4.0 0.00 0.00 0.00 81 1019.1
20260830170901 80 170 1.0 5.0 0.00 0.00 0.00 80 1019.1
20260830170700 80 264 1.0 3.0 0.00 0.00 0.00 81 1019.2
20260830170600 80 264 1.0 6.0 0.00 0.00 0.00 80 1019.2
20260830170402 80 250 2.0 6.0 0.00 0.00 0.00 81 1019.1
20260830170300 80 178 3.0 6.0 0.00 0.00 0.00 81 1019.2
20260830170200 80 178 0.0 6.0 0.00 0.00 0.00 82 1019.2
20260830165901 80 188 1.0 6.0 0.00 0.00 0.00 84 1019.2
20260830165800 80 188 0.0 6.0 0.00 0.00 0.00 83 1019.2
20260830165700 80 180 1.0 6.0 0.00 0.00 0.00 82 1019.2
20260830165600 80 135 3.0 3.0 0.00 0.00 0.00 81 1019.2
20260830165300 80 228 1.0 3.0 0.00 0.00 0.00 81 1019.1
20260830165200 80 228 1.0 3.0 0.00 0.00 0.00 81 1019.2
20260830165101 80 228 0.0 3.0 0.00 0.00 0.00 80 1019.2
20260830165003 80 228 2.0 3.0 0.00 0.00 0.00 80 1019.2
20260830164901 80 228 3.0 3.0 0.00 0.00 0.00 80 1019.1
20260830164801 80 228 3.0 3.0 0.00 0.00 0.00 81 1019.1
20260830164601 80 136 0.0 3.0 0.00 0.00 0.00 81 1019.1
20260830164401 80 136 1.0 3.0 0.00 0.00 0.00 80 1019.1
20260830164300 80 136 2.0 3.0 0.00 0.00 0.00 81 1019.1
20260830164201 80 136 0.0 3.0 0.00 0.00 0.00 81 1019.1
20260830164059 80 136 0.0 3.0 0.00 0.00 0.00 80 1019.2
20260830163801 80 211 0.0 3.0 0.00 0.00 0.00 80 1019.1
20260830163701 80 211 1.0 3.0 0.00 0.00 0.00 80 1019.1
20260830163601 80 211 1.0 3.0 0.00 0.00 0.00 80 1019.1
20260830163503 80 211 1.0 3.0 0.00 0.00 0.00 81 1019.1
20260830163401 80 195 0.0 3.0 0.00 0.00 0.00 81 1019.2
20260830163004 80 146 1.0 3.0 0.00 0.00 0.00 81 1019.1
20260830162900 80 120 1.0 2.0 0.00 0.00 0.00 81 1019.1
20260830162801 80 118 0.0 2.0 0.00 0.00 0.00 82 1019.1
20260830162600 80 119 2.0 2.0 0.00 0.00 0.00 81 1019.2
20260830162504 80 327 2.0 2.0 0.00 0.00 0.00 81 1019.2
20260830162359 80 23 0.0 2.0 0.00 0.00 0.00 81 1019.3
20260830162300 80 23 1.0 3.0 0.00 0.00 0.00 81 1019.3
20260830162004 80 23 1.0 3.0 0.00 0.00 0.00 80 1019.2
20260830161902 80 23 1.0 3.0 0.00 0.00 0.00 80 1019.3
20260830161702 80 46 2.0 4.0 0.00 0.00 0.00 81 1019.2
20260830161504 79 49 2.0 4.0 0.00 0.00 0.00 83 1019.1
20260830161401 79 141 0.0 4.0 0.00 0.00 0.00 83 1019.2
20260830161301 79 142 2.0 4.0 0.00 0.00 0.00 84 1019.2
20260830161100 79 51 0.0 4.0 0.00 0.00 0.00 81 1019.3
20260830161004 79 51 0.0 4.0 0.00 0.00 0.00 80 1019.2
20260830160801 79 68 2.0 3.0 0.00 0.00 0.00 83 1019.3
20260830160700 79 217 0.0 3.0 0.00 0.00 0.00 83 1019.3
20260830160301 79 49 0.0 3.0 0.00 0.00 0.00 84 1019.3
20260830160005 79 144 1.0 3.0 0.00 0.00 0.00 81 1019.5
20260830155801 79 121 1.0 5.0 0.00 0.00 0.00 82 1019.5
20260830155701 78 121 0.0 5.0 0.00 0.00 0.00 83 1019.5
20260830155602 78 121 0.0 5.0 0.00 0.00 0.00 83 1019.5
20260830155505 78 116 0.0 5.0 0.00 0.00 0.00 83 1019.5
20260830155402 78 116 0.0 5.0 0.00 0.00 0.00 84 1019.5
20260830155306 78 116 0.0 5.0 0.00 0.00 0.00 84 1019.5
20260830155203 78 116 0.0 5.0 0.00 0.00 0.00 84 1019.6
20260830155102 78 34 2.0 5.0 0.00 0.00 0.00 85 1019.5
20260830155005 78 26 0.0 5.0 0.00 0.00 0.00 87 1019.5
20260830154902 77 143 1.0 5.0 0.00 0.00 0.00 85 1019.6
20260830154802 77 179 1.0 5.0 0.00 0.00 0.00 86 1019.6
20260830154703 77 179 2.0 5.0 0.00 0.00 0.00 84 1019.6
20260830154603 77 124 2.0 5.0 0.00 0.00 0.00 84 1019.7
20260830154504 77 120 1.0 5.0 0.00 0.00 0.00 85 1019.7
20260830154302 77 159 2.0 5.0 0.00 0.00 0.00 84 1019.7
20260830154202 77 157 5.0 5.0 0.00 0.00 0.00 85 1019.7
20260830154101 77 174 1.0 4.0 0.00 0.00 0.00 85 1019.8
20260830154005 77 151 0.0 4.0 0.00 0.00 0.00 86 1019.8
20260830153902 77 151 1.0 4.0 0.00 0.00 0.00 85 1019.8
20260830153702 77 150 1.0 6.0 0.00 0.00 0.00 86 1019.9
20260830153603 77 151 2.0 6.0 0.00 0.00 0.00 86 1019.8
20260830153503 76 151 3.0 6.0 0.00 0.00 0.00 85 1019.8
20260830153402 76 112 2.0 6.0 0.00 0.00 0.00 85 1019.8
20260830153301 76 153 2.0 6.0 0.00 0.00 0.00 84 1019.8
20260830153203 76 174 3.0 6.0 0.00 0.00 0.00 84 1019.8
20260830153101 76 171 1.0 6.0 0.00 0.00 0.00 84 1019.9
20260830152902 76 177 4.0 6.0 0.00 0.00 0.00 85 1019.9
20260830152802 76 132 3.0 5.0 0.00 0.00 0.00 85 1019.9
20260830152702 76 128 1.0 3.0 0.00 0.00 0.00 85 1019.9
20260830152601 76 128 1.0 3.0 0.00 0.00 0.00 85 1019.9
20260830152505 76 128 0.0 3.0 0.00 0.00 0.00 87 1019.9
20260830152305 76 128 0.0 3.0 0.00 0.00 0.00 86 1019.9
20260830152201 76 128 2.0 3.0 0.00 0.00 0.00 86 1019.9
20260830152103 76 128 0.0 3.0 0.00 0.00 0.00 86 1019.9
20260830152004 75 130 0.0 3.0 0.00 0.00 0.00 87 1019.9
20260830151902 75 130 1.0 3.0 0.00 0.00 0.00 87 1020.0
20260830151802 75 130 1.0 3.0 0.00 0.00 0.00 87 1020.0
20260830151702 75 130 1.0 3.0 0.00 0.00 0.00 88 1020.0
20260830151602 75 116 0.0 3.0 0.00 0.00 0.00 87 1020.0
20260830151504 75 117 1.0 3.0 0.00 0.00 0.00 87 1020.0
20260830151401 75 117 0.0 3.0 0.00 0.00 0.00 87 1020.0
20260830151302 75 117 2.0 3.0 0.00 0.00 0.00 88 1020.0
20260830151201 75 117 2.0 2.0 0.00 0.00 0.00 88 1020.0
20260830151004 75 113 1.0 2.0 0.00 0.00 0.00 89 1020.0